| time (UTC) | temp F | wind direction | speed MPH | gust MPH | rain 1hr in | rain 24hr in | rain mn in | humidity % | barometer mb |
| 20260506231101 | 74 | 91 | 0.0 | 2.0 | 0.00 | 0.00 | 0.00 | 57 | 1006.3 |
| 20260506230900 | 74 | 82 | 0.0 | 2.0 | 0.00 | 0.00 | 0.00 | 57 | 1006.3 |
| 20260506230601 | 74 | 80 | 1.0 | 2.0 | 0.00 | 0.00 | 0.00 | 57 | 1006.4 |
| 20260506230503 | 74 | 74 | 0.0 | 2.0 | 0.00 | 0.00 | 0.00 | 58 | 1006.3 |
| 20260506230400 | 74 | 105 | 0.0 | 2.0 | 0.00 | 0.00 | 0.00 | 58 | 1006.4 |
| 20260506230201 | 74 | 51 | 0.0 | 2.0 | 0.00 | 0.00 | 0.00 | 57 | 1006.3 |
| 20260506230100 | 74 | 69 | 0.0 | 2.0 | 0.00 | 0.00 | 0.00 | 57 | 1006.3 |
| 20260506225800 | 74 | 40 | 0.0 | 1.0 | 0.00 | 0.00 | 0.00 | 58 | 1006.3 |
| 20260506225700 | 74 | 38 | 0.0 | 2.0 | 0.00 | 0.00 | 0.00 | 58 | 1006.3 |
| 20260506225602 | 74 | 38 | 0.0 | 2.0 | 0.00 | 0.00 | 0.00 | 57 | 1006.3 |
| 20260506225503 | 74 | 37 | 1.0 | 2.0 | 0.00 | 0.00 | 0.00 | 57 | 1006.3 |
| 20260506225401 | 74 | 40 | 0.0 | 2.0 | 0.00 | 0.00 | 0.00 | 57 | 1006.3 |
| 20260506225305 | 74 | 42 | 0.0 | 2.0 | 0.00 | 0.00 | 0.00 | 57 | 1006.3 |
| 20260506225201 | 74 | 46 | 0.0 | 2.0 | 0.00 | 0.00 | 0.00 | 58 | 1006.3 |
| 20260506225106 | 74 | 46 | 0.0 | 2.0 | 0.00 | 0.00 | 0.00 | 58 | 1006.3 |
| 20260506225006 | 74 | 32 | 0.0 | 2.0 | 0.00 | 0.00 | 0.00 | 57 | 1006.3 |
| 20260506224702 | 74 | 5 | 0.0 | 2.0 | 0.00 | 0.00 | 0.00 | 57 | 1006.2 |
| 20260506224503 | 74 | 5 | 0.0 | 2.0 | 0.00 | 0.00 | 0.00 | 57 | 1006.2 |
| 20260506224301 | 74 | 42 | 0.0 | 2.0 | 0.00 | 0.00 | 0.00 | 57 | 1006.2 |
| 20260506224203 | 74 | 46 | 0.0 | 2.0 | 0.00 | 0.00 | 0.00 | 57 | 1006.3 |
| 20260506224104 | 74 | 87 | 1.0 | 2.0 | 0.00 | 0.00 | 0.00 | 57 | 1006.2 |
| 20260506224004 | 74 | 32 | 1.0 | 2.0 | 0.00 | 0.00 | 0.00 | 57 | 1006.2 |
| 20260506223902 | 74 | 28 | 1.0 | 2.0 | 0.00 | 0.00 | 0.00 | 57 | 1006.2 |
| 20260506223801 | 74 | 47 | 1.0 | 2.0 | 0.00 | 0.00 | 0.00 | 57 | 1006.2 |
| 20260506223702 | 74 | 53 | 1.0 | 2.0 | 0.00 | 0.00 | 0.00 | 57 | 1006.2 |
| 20260506223504 | 74 | 34 | 1.0 | 2.0 | 0.00 | 0.00 | 0.00 | 57 | 1006.2 |
| 20260506223404 | 74 | 52 | 1.0 | 2.0 | 0.00 | 0.00 | 0.00 | 57 | 1006.2 |
| 20260506223301 | 74 | 44 | 1.0 | 2.0 | 0.00 | 0.00 | 0.00 | 57 | 1006.1 |
| 20260506223202 | 74 | 46 | 1.0 | 2.0 | 0.00 | 0.00 | 0.00 | 57 | 1006.0 |
| 20260506223103 | 74 | 34 | 1.0 | 2.0 | 0.00 | 0.00 | 0.00 | 57 | 1006.2 |
| 20260506223005 | 74 | 39 | 1.0 | 2.0 | 0.00 | 0.00 | 0.00 | 57 | 1006.1 |
| 20260506222901 | 74 | 40 | 1.0 | 2.0 | 0.00 | 0.00 | 0.00 | 57 | 1006.1 |
| 20260506222800 | 75 | 26 | 1.0 | 2.0 | 0.00 | 0.00 | 0.00 | 57 | 1006.0 |
| 20260506222702 | 74 | 46 | 0.0 | 2.0 | 0.00 | 0.00 | 0.00 | 57 | 1006.1 |
| 20260506222602 | 75 | 59 | 0.0 | 2.0 | 0.00 | 0.00 | 0.00 | 56 | 1006.0 |
| 20260506222503 | 75 | 49 | 0.0 | 2.0 | 0.00 | 0.00 | 0.00 | 56 | 1006.0 |
| 20260506222402 | 75 | 63 | 0.0 | 2.0 | 0.00 | 0.00 | 0.00 | 56 | 1006.1 |
| 20260506222305 | 75 | 26 | 0.0 | 2.0 | 0.00 | 0.00 | 0.00 | 56 | 1006.1 |
| 20260506222202 | 75 | 26 | 0.0 | 2.0 | 0.00 | 0.00 | 0.00 | 56 | 1006.1 |
| 20260506222103 | 75 | 26 | 0.0 | 3.0 | 0.00 | 0.00 | 0.00 | 56 | 1006.0 |
| 20260506222004 | 75 | 26 | 1.0 | 3.0 | 0.00 | 0.00 | 0.00 | 55 | 1006.0 |
| 20260506221801 | 75 | 25 | 0.0 | 3.0 | 0.00 | 0.00 | 0.00 | 55 | 1006.0 |
| 20260506221701 | 75 | 42 | 0.0 | 3.0 | 0.00 | 0.00 | 0.00 | 55 | 1005.9 |
| 20260506221601 | 75 | 69 | 0.0 | 3.0 | 0.00 | 0.00 | 0.00 | 55 | 1006.0 |
| 20260506221505 | 75 | 72 | 0.0 | 3.0 | 0.00 | 0.00 | 0.00 | 55 | 1005.9 |
| 20260506221402 | 75 | 46 | 1.0 | 3.0 | 0.00 | 0.00 | 0.00 | 54 | 1005.9 |
| 20260506221301 | 75 | 67 | 2.0 | 3.0 | 0.00 | 0.00 | 0.00 | 54 | 1005.9 |
| 20260506221209 | 75 | 63 | 2.0 | 3.0 | 0.00 | 0.00 | 0.00 | 54 | 1005.9 |
| 20260506221004 | 75 | 65 | 1.0 | 3.0 | 0.00 | 0.00 | 0.00 | 54 | 1005.8 |
| 20260506220802 | 75 | 66 | 0.0 | 3.0 | 0.00 | 0.00 | 0.00 | 54 | 1005.9 |
| 20260506220600 | 75 | 64 | 1.0 | 3.0 | 0.00 | 0.00 | 0.00 | 54 | 1005.8 |
| 20260506220503 | 75 | 67 | 1.0 | 3.0 | 0.00 | 0.00 | 0.00 | 54 | 1005.8 |
| 20260506220402 | 75 | 101 | 0.0 | 3.0 | 0.00 | 0.00 | 0.00 | 54 | 1005.8 |
| 20260506220302 | 75 | 101 | 1.0 | 3.0 | 0.00 | 0.00 | 0.00 | 54 | 1005.8 |
| 20260506220200 | 75 | 96 | 1.0 | 3.0 | 0.00 | 0.00 | 0.00 | 54 | 1005.7 |
| 20260506220101 | 75 | 121 | 0.0 | 3.0 | 0.00 | 0.00 | 0.00 | 54 | 1005.8 |
| 20260506220007 | 75 | 98 | 0.0 | 3.0 | 0.00 | 0.00 | 0.00 | 54 | 1005.8 |
| 20260506215801 | 75 | 72 | 1.0 | 3.0 | 0.00 | 0.00 | 0.00 | 54 | 1005.7 |
| 20260506215701 | 75 | 90 | 1.0 | 3.0 | 0.00 | 0.00 | 0.00 | 54 | 1005.7 |
| 20260506215601 | 75 | 53 | 0.0 | 3.0 | 0.00 | 0.00 | 0.00 | 54 | 1005.7 |
| 20260506215504 | 75 | 63 | 1.0 | 3.0 | 0.00 | 0.00 | 0.00 | 54 | 1005.7 |
| 20260506215305 | 75 | 355 | 0.0 | 3.0 | 0.00 | 0.00 | 0.00 | 54 | 1005.6 |
| 20260506215201 | 75 | 43 | 1.0 | 3.0 | 0.00 | 0.00 | 0.00 | 54 | 1005.7 |
| 20260506215101 | 75 | 61 | 1.0 | 3.0 | 0.00 | 0.00 | 0.00 | 54 | 1005.6 |
| 20260506214802 | 75 | 76 | 1.0 | 3.0 | 0.00 | 0.00 | 0.00 | 54 | 1005.5 |
| 20260506214601 | 75 | 64 | 0.0 | 3.0 | 0.00 | 0.00 | 0.00 | 54 | 1005.5 |
| 20260506214503 | 75 | 107 | 0.0 | 3.0 | 0.00 | 0.00 | 0.00 | 54 | 1005.5 |
| 20260506214301 | 75 | 59 | 1.0 | 3.0 | 0.00 | 0.00 | 0.00 | 54 | 1005.6 |
| 20260506214201 | 75 | 67 | 0.0 | 3.0 | 0.00 | 0.00 | 0.00 | 54 | 1005.5 |
| 20260506214101 | 75 | 84 | 0.0 | 3.0 | 0.00 | 0.00 | 0.00 | 54 | 1005.5 |
| 20260506214005 | 75 | 111 | 0.0 | 3.0 | 0.00 | 0.00 | 0.00 | 54 | 1005.5 |
| 20260506213901 | 75 | 82 | 1.0 | 3.0 | 0.00 | 0.00 | 0.00 | 54 | 1005.5 |
| 20260506213804 | 75 | 106 | 2.0 | 3.0 | 0.00 | 0.00 | 0.00 | 54 | 1005.5 |
| 20260506213601 | 75 | 61 | 1.0 | 3.0 | 0.00 | 0.00 | 0.00 | 54 | 1005.6 |
| 20260506213503 | 75 | 92 | 1.0 | 3.0 | 0.00 | 0.00 | 0.00 | 54 | 1005.5 |
| 20260506213400 | 75 | 92 | 1.0 | 4.0 | 0.00 | 0.00 | 0.00 | 54 | 1005.6 |
| 20260506213202 | 75 | 99 | 1.0 | 4.0 | 0.00 | 0.00 | 0.00 | 54 | 1005.5 |
| 20260506213102 | 75 | 69 | 1.0 | 4.0 | 0.00 | 0.00 | 0.00 | 54 | 1005.6 |
| 20260506213006 | 75 | 77 | 1.0 | 4.0 | 0.00 | 0.00 | 0.00 | 54 | 1005.5 |
| 20260506212901 | 75 | 89 | 1.0 | 4.0 | 0.00 | 0.00 | 0.00 | 54 | 1005.5 |
| 20260506212801 | 75 | 67 | 1.0 | 4.0 | 0.00 | 0.00 | 0.00 | 54 | 1005.5 |
| 20260506212704 | 75 | 118 | 2.0 | 4.0 | 0.00 | 0.00 | 0.00 | 54 | 1005.5 |
| 20260506212601 | 75 | 90 | 3.0 | 4.0 | 0.00 | 0.00 | 0.00 | 53 | 1005.4 |
| 20260506212503 | 75 | 104 | 2.0 | 4.0 | 0.00 | 0.00 | 0.00 | 53 | 1005.4 |
| 20260506212402 | 75 | 103 | 2.0 | 4.0 | 0.00 | 0.00 | 0.00 | 53 | 1005.4 |
| 20260506212305 | 75 | 127 | 2.0 | 4.0 | 0.00 | 0.00 | 0.00 | 53 | 1005.4 |
| 20260506212101 | 75 | 71 | 1.0 | 3.0 | 0.00 | 0.00 | 0.00 | 53 | 1005.5 |
| 20260506212004 | 75 | 77 | 1.0 | 3.0 | 0.00 | 0.00 | 0.00 | 53 | 1005.5 |
| 20260506211902 | 75 | 89 | 1.0 | 3.0 | 0.00 | 0.00 | 0.00 | 53 | 1005.4 |
| 20260506211801 | 75 | 74 | 1.0 | 3.0 | 0.00 | 0.00 | 0.00 | 53 | 1005.5 |
| 20260506211701 | 75 | 103 | 1.0 | 3.0 | 0.00 | 0.00 | 0.00 | 53 | 1005.5 |
| 20260506211503 | 75 | 98 | 1.0 | 4.0 | 0.00 | 0.00 | 0.00 | 53 | 1005.6 |
| 20260506211402 | 75 | 71 | 1.0 | 4.0 | 0.00 | 0.00 | 0.00 | 53 | 1005.5 |
| 20260506211100 | 75 | 98 | 1.0 | 4.0 | 0.00 | 0.00 | 0.00 | 53 | 1005.5 |
| 20260506211005 | 75 | 66 | 1.0 | 4.0 | 0.00 | 0.00 | 0.00 | 53 | 1005.5 |
| 20260506210902 | 75 | 93 | 1.0 | 4.0 | 0.00 | 0.00 | 0.00 | 53 | 1005.4 |
| 20260506210801 | 75 | 121 | 2.0 | 4.0 | 0.00 | 0.00 | 0.00 | 53 | 1005.6 |
| 20260506210703 | 75 | 77 | 2.0 | 4.0 | 0.00 | 0.00 | 0.00 | 53 | 1005.5 |
| 20260506210602 | 75 | 59 | 3.0 | 4.0 | 0.00 | 0.00 | 0.00 | 53 | 1005.5 |
| 20260506210507 | 75 | 88 | 2.0 | 4.0 | 0.00 | 0.00 | 0.00 | 53 | 1005.5 |
| 20260506210402 | 75 | 61 | 2.0 | 4.0 | 0.00 | 0.00 | 0.00 | 53 | 1005.5 |
| 20260506210302 | 75 | 69 | 2.0 | 4.0 | 0.00 | 0.00 | 0.00 | 53 | 1005.5 |
| 20260506210204 | 75 | 72 | 2.0 | 4.0 | 0.00 | 0.00 | 0.00 | 53 | 1005.5 |
| 20260506210006 | 75 | 49 | 1.0 | 4.0 | 0.00 | 0.00 | 0.00 | 52 | 1005.5 |
| 20260506205901 | 75 | 94 | 2.0 | 4.0 | 0.00 | 0.00 | 0.00 | 52 | 1005.5 |
| 20260506205659 | 76 | 94 | 1.0 | 4.0 | 0.00 | 0.00 | 0.00 | 52 | 1005.4 |
| 20260506205602 | 76 | 104 | 1.0 | 4.0 | 0.00 | 0.00 | 0.00 | 52 | 1005.4 |
| 20260506205501 | 76 | 109 | 1.0 | 4.0 | 0.00 | 0.00 | 0.00 | 52 | 1005.5 |
| 20260506205306 | 76 | 106 | 1.0 | 4.0 | 0.00 | 0.00 | 0.00 | 52 | 1005.4 |
| 20260506205200 | 76 | 86 | 1.0 | 4.0 | 0.00 | 0.00 | 0.00 | 52 | 1005.5 |
| 20260506205101 | 76 | 57 | 1.0 | 4.0 | 0.00 | 0.00 | 0.00 | 52 | 1005.4 |
| 20260506205004 | 76 | 80 | 1.0 | 4.0 | 0.00 | 0.00 | 0.00 | 52 | 1005.3 |
| 20260506204900 | 76 | 71 | 1.0 | 4.0 | 0.00 | 0.00 | 0.00 | 51 | 1005.3 |
| 20260506204802 | 76 | 90 | 0.0 | 4.0 | 0.00 | 0.00 | 0.00 | 51 | 1005.4 |
| 20260506204659 | 76 | 92 | 0.0 | 4.0 | 0.00 | 0.00 | 0.00 | 51 | 1005.3 |
| 20260506204600 | 76 | 101 | 0.0 | 4.0 | 0.00 | 0.00 | 0.00 | 51 | 1005.4 |
| 20260506204503 | 76 | 107 | 0.0 | 4.0 | 0.00 | 0.00 | 0.00 | 51 | 1005.4 |
| 20260506204300 | 76 | 360 | 1.0 | 4.0 | 0.00 | 0.00 | 0.00 | 51 | 1005.4 |
| 20260506204201 | 76 | 79 | 2.0 | 4.0 | 0.00 | 0.00 | 0.00 | 51 | 1005.3 |
| 20260506204102 | 76 | 65 | 2.0 | 4.0 | 0.00 | 0.00 | 0.00 | 51 | 1005.3 |
| 20260506203901 | 76 | 78 | 1.0 | 4.0 | 0.00 | 0.00 | 0.00 | 50 | 1005.3 |
| 20260506203802 | 76 | 83 | 1.0 | 6.0 | 0.00 | 0.00 | 0.00 | 50 | 1005.3 |
| 20260506203700 | 76 | 94 | 2.0 | 6.0 | 0.00 | 0.00 | 0.00 | 50 | 1005.4 |
| 20260506203603 | 76 | 123 | 2.0 | 6.0 | 0.00 | 0.00 | 0.00 | 50 | 1005.4 |
| 20260506203503 | 76 | 78 | 2.0 | 6.0 | 0.00 | 0.00 | 0.00 | 50 | 1005.4 |
| 20260506203401 | 76 | 106 | 2.0 | 6.0 | 0.00 | 0.00 | 0.00 | 50 | 1005.3 |
| 20260506203201 | 77 | 92 | 2.0 | 6.0 | 0.00 | 0.00 | 0.00 | 50 | 1005.3 |
| 20260506203101 | 77 | 65 | 3.0 | 6.0 | 0.00 | 0.00 | 0.00 | 50 | 1005.3 |
| 20260506202859 | 77 | 88 | 2.0 | 5.0 | 0.00 | 0.00 | 0.00 | 50 | 1005.4 |
| 20260506202802 | 77 | 117 | 1.0 | 4.0 | 0.00 | 0.00 | 0.00 | 49 | 1005.4 |
| 20260506202700 | 77 | 46 | 1.0 | 4.0 | 0.00 | 0.00 | 0.00 | 49 | 1005.3 |
| 20260506202600 | 77 | 73 | 1.0 | 7.0 | 0.00 | 0.00 | 0.00 | 49 | 1005.3 |
| 20260506202402 | 77 | 78 | 2.0 | 7.0 | 0.00 | 0.00 | 0.00 | 49 | 1005.3 |
| 20260506202300 | 77 | 69 | 2.0 | 7.0 | 0.00 | 0.00 | 0.00 | 49 | 1005.3 |
| 20260506202003 | 77 | 109 | 3.0 | 9.0 | 0.00 | 0.00 | 0.00 | 48 | 1005.3 |
| 20260506201900 | 77 | 96 | 3.0 | 9.0 | 0.00 | 0.00 | 0.00 | 48 | 1005.3 |
| 20260506201759 | 77 | 107 | 3.0 | 9.0 | 0.00 | 0.00 | 0.00 | 48 | 1005.4 |
| 20260506201702 | 77 | 105 | 154.0 | 655.0 | 0.09 | 1.16 | 0.00 | 49 | |
| 20260506201603 | 77 | 115 | 2.0 | 9.0 | 0.00 | 0.00 | 0.00 | 48 | 1005.3 |
| 20260506201503 | 77 | 69 | 2.0 | 9.0 | 0.00 | 0.00 | 0.00 | 48 | 1005.4 |
| 20260506201406 | 77 | 136 | 3.0 | 9.0 | 0.00 | 0.00 | 0.00 | 48 | 1005.4 |
| 20260506201302 | 77 | 28 | 5.0 | 9.0 | 0.00 | 0.00 | 0.00 | 48 | 1005.3 |
| 20260506201204 | 77 | 94 | 6.0 | 9.0 | 0.00 | 0.00 | 0.00 | 48 | 1005.3 |
| 20260506201101 | 77 | 106 | 5.0 | 9.0 | 0.00 | 0.00 | 0.00 | 48 | 1005.4 |
| 20260506201006 | 77 | 123 | 3.0 | 8.0 | 0.00 | 0.00 | 0.00 | 48 | 1005.5 |
| 20260506200800 | 77 | 101 | 3.0 | 8.0 | 0.00 | 0.00 | 0.00 | 48 | 1005.5 |
| 20260506200708 | 77 | 80 | 4.0 | 8.0 | 0.00 | 0.00 | 0.00 | 48 | 1005.5 |
| 20260506200503 | 77 | 98 | 4.0 | 8.0 | 0.00 | 0.00 | 0.00 | 48 | 1005.5 |
| 20260506200359 | 77 | 157 | 4.0 | 8.0 | 0.00 | 0.00 | 0.00 | 48 | 1005.5 |
| 20260506200201 | 77 | 122 | 5.0 | 9.0 | 0.00 | 0.00 | 0.00 | 48 | 1005.5 |
| 20260506200100 | 77 | 105 | 5.0 | 9.0 | 0.00 | 0.00 | 0.00 | 48 | 1005.5 |
| 20260506200007 | 77 | 119 | 4.0 | 9.0 | 0.00 | 0.00 | 0.00 | 48 | 1005.5 |
| 20260506195904 | 77 | 113 | 5.0 | 9.0 | 0.00 | 0.00 | 0.00 | 48 | 1005.5 |
| 20260506195803 | 77 | 105 | 4.0 | 9.0 | 0.00 | 0.00 | 0.00 | 48 | 1005.5 |
| 20260506195704 | 77 | 99 | 3.0 | 9.0 | 0.00 | 0.00 | 0.00 | 48 | 1005.5 |
| 20260506195604 | 78 | 98 | 4.0 | 9.0 | 0.00 | 0.00 | 0.00 | 48 | 1005.6 |
| 20260506195505 | 78 | 133 | 6.0 | 9.0 | 0.00 | 0.00 | 0.00 | 48 | 1005.6 |
| 20260506195404 | 78 | 128 | 4.0 | 9.0 | 0.00 | 0.00 | 0.00 | 48 | 1005.6 |
| 20260506195105 | 78 | 36 | 3.0 | 8.0 | 0.00 | 0.00 | 0.00 | 48 | 1005.7 |
| 20260506195005 | 78 | 95 | 4.0 | 10.0 | 0.00 | 0.00 | 0.00 | 48 | 1005.7 |
| 20260506194904 | 78 | 71 | 4.0 | 10.0 | 0.00 | 0.00 | 0.00 | 47 | 1005.7 |
| 20260506194803 | 78 | 125 | 2.0 | 10.0 | 0.00 | 0.00 | 0.00 | 48 | 1005.6 |
| 20260506194704 | 78 | 83 | 2.0 | 10.0 | 0.00 | 0.00 | 0.00 | 48 | 1005.6 |
| 20260506194602 | 78 | 125 | 3.0 | 10.0 | 0.00 | 0.00 | 0.00 | 47 | 1005.6 |
| 20260506194507 | 78 | 126 | 4.0 | 10.0 | 0.00 | 0.00 | 0.00 | 47 | 1005.6 |
| 20260506194405 | 78 | 122 | 4.0 | 12.0 | 0.00 | 0.00 | 0.00 | 47 | 1005.6 |
| 20260506194303 | 78 | 135 | 6.0 | 12.0 | 0.00 | 0.00 | 0.00 | 47 | 1005.7 |
| 20260506194201 | 78 | 133 | 7.0 | 12.0 | 0.00 | 0.00 | 0.00 | 47 | 1005.7 |
| 20260506194103 | 78 | 155 | 6.0 | 12.0 | 0.00 | 0.00 | 0.00 | 47 | 1005.6 |
| 20260506194010 | 78 | 119 | 6.0 | 12.0 | 0.00 | 0.00 | 0.00 | 47 | 1005.6 |
| 20260506193902 | 78 | 137 | 5.0 | 12.0 | 0.00 | 0.00 | 0.00 | 47 | 1005.7 |
| 20260506193805 | 78 | 150 | 5.0 | 12.0 | 0.00 | 0.00 | 0.00 | 47 | 1005.7 |
| 20260506193704 | 78 | 88 | 6.0 | 12.0 | 0.00 | 0.00 | 0.00 | 47 | 1005.7 |
| 20260506193604 | 78 | 94 | 6.0 | 12.0 | 0.00 | 0.00 | 0.00 | 47 | 1005.7 |
| 20260506193506 | 78 | 106 | 6.0 | 10.0 | 0.00 | 0.00 | 0.00 | 48 | 1005.8 |
| 20260506193302 | 78 | 132 | 4.0 | 10.0 | 0.00 | 0.00 | 0.00 | 48 | 1005.8 |
| 20260506193204 | 78 | 121 | 5.0 | 10.0 | 0.00 | 0.00 | 0.00 | 48 | 1005.8 |
| 20260506193103 | 78 | 136 | 4.0 | 10.0 | 0.00 | 0.00 | 0.00 | 48 | 1005.8 |
| 20260506193007 | 78 | 154 | 5.0 | 10.0 | 0.00 | 0.00 | 0.00 | 48 | 1005.8 |
| 20260506192804 | 78 | 123 | 5.0 | 10.0 | 0.00 | 0.00 | 0.00 | 48 | 1005.7 |
| 20260506192604 | 78 | 138 | 5.0 | 10.0 | 0.00 | 0.00 | 0.00 | 48 | 1005.8 |
| 20260506192509 | 78 | 115 | 5.0 | 10.0 | 0.00 | 0.00 | 0.00 | 48 | 1005.8 |
| 20260506192403 | 78 | 131 | 4.0 | 10.0 | 0.00 | 0.00 | 0.00 | 48 | 1005.8 |
| 20260506192305 | 78 | 133 | 6.0 | 10.0 | 0.00 | 0.00 | 0.00 | 47 | 1005.8 |
| 20260506192204 | 78 | 123 | 8.0 | 10.0 | 0.00 | 0.00 | 0.00 | 47 | 1005.8 |
| 20260506192007 | 78 | 137 | 5.0 | 10.0 | 0.00 | 0.00 | 0.00 | 48 | 1005.8 |
| 20260506191903 | 78 | 126 | 5.0 | 10.0 | 0.00 | 0.00 | 0.00 | 48 | 1005.8 |
| 20260506191804 | 78 | 105 | 6.0 | 10.0 | 0.00 | 0.00 | 0.00 | 48 | 1005.9 |
| 20260506191705 | 78 | 133 | 5.0 | 10.0 | 0.00 | 0.00 | 0.00 | 48 | 1005.9 |
| 20260506191604 | 78 | 158 | 4.0 | 10.0 | 0.00 | 0.00 | 0.00 | 48 | 1005.8 |
| 20260506191506 | 78 | 87 | 3.0 | 10.0 | 0.00 | 0.00 | 0.00 | 49 | 1005.9 |
| 20260506191405 | 78 | 115 | 2.0 | 6.0 | 0.00 | 0.00 | 0.00 | 49 | 1005.8 |
| 20260506191206 | 78 | 113 | 4.0 | 6.0 | 0.00 | 0.00 | 0.00 | 49 | 1005.8 |
| 20260506191103 | 78 | 131 | 3.0 | 6.0 | 0.00 | 0.00 | 0.00 | 49 | 1005.9 |
| 20260506191007 | 78 | 113 | 2.0 | 6.0 | 0.00 | 0.00 | 0.00 | 49 | 1005.9 |
| 20260506190903 | 78 | 103 | 3.0 | 6.0 | 0.00 | 0.00 | 0.00 | 49 | 1005.9 |
| 20260506190805 | 78 | 146 | 3.0 | 6.0 | 0.00 | 0.00 | 0.00 | 49 | 1005.9 |
| 20260506190704 | 78 | 110 | 3.0 | 6.0 | 0.00 | 0.00 | 0.00 | 49 | 1005.8 |
| 20260506190603 | 78 | 126 | 3.0 | 6.0 | 0.00 | 0.00 | 0.00 | 49 | 1005.9 |
| 20260506190505 | 78 | 115 | 3.0 | 6.0 | 0.00 | 0.00 | 0.00 | 49 | 1005.9 |
| 20260506190405 | 78 | 111 | 3.0 | 6.0 | 0.00 | 0.00 | 0.00 | 49 | 1006.0 |
| 20260506190305 | 78 | 153 | 3.0 | 6.0 | 0.00 | 0.00 | 0.00 | 49 | 1005.9 |
| 20260506190205 | 78 | 126 | 2.0 | 7.0 | 0.00 | 0.00 | 0.00 | 49 | 1005.9 |
| 20260506190007 | 78 | 129 | 3.0 | 7.0 | 0.00 | 0.00 | 0.00 | 49 | 1006.0 |
| 20260506185902 | 78 | 156 | 3.0 | 7.0 | 0.00 | 0.00 | 0.00 | 48 | 1006.0 |
| 20260506185802 | 78 | 141 | 3.0 | 9.0 | 0.00 | 0.00 | 0.00 | 49 | 1006.0 |
| 20260506185605 | 78 | 161 | 3.0 | 10.0 | 0.00 | 0.00 | 0.00 | 48 | 1006.0 |
| 20260506185507 | 78 | 117 | 3.0 | 10.0 | 0.00 | 0.00 | 0.00 | 49 | 1006.1 |
| 20260506185403 | 78 | 125 | 4.0 | 10.0 | 0.00 | 0.00 | 0.00 | 48 | 1006.0 |
| 20260506185306 | 78 | 133 | 3.0 | 10.0 | 0.00 | 0.00 | 0.00 | 49 | 1006.1 |
| 20260506185204 | 78 | 153 | 4.0 | 10.0 | 0.00 | 0.00 | 0.00 | 48 | 1006.0 |
| 20260506185104 | 78 | 123 | 5.0 | 10.0 | 0.00 | 0.00 | 0.00 | 48 | 1006.1 |
| 20260506184905 | 78 | 132 | 6.0 | 10.0 | 0.00 | 0.00 | 0.00 | 48 | 1006.1 |
| 20260506184803 | 79 | 140 | 6.0 | 10.0 | 0.00 | 0.00 | 0.00 | 48 | 1006.1 |
| 20260506184703 | 79 | 140 | 5.0 | 10.0 | 0.00 | 0.00 | 0.00 | 48 | 1006.1 |
| 20260506184602 | 79 | 133 | 3.0 | 8.0 | 0.00 | 0.00 | 0.00 | 48 | 1006.2 |
| 20260506184506 | 79 | 165 | 2.0 | 8.0 | 0.00 | 0.00 | 0.00 | 48 | 1006.1 |
| 20260506184401 | 79 | 133 | 1.0 | 8.0 | 0.00 | 0.00 | 0.00 | 49 | 1006.1 |
| 20260506184303 | 79 | 142 | 1.0 | 8.0 | 0.00 | 0.00 | 0.00 | 48 | 1006.0 |
| 20260506184203 | 79 | 160 | 3.0 | 8.0 | 0.00 | 0.00 | 0.00 | 48 | 1006.2 |
| 20260506184006 | 79 | 135 | 4.0 | 12.0 | 0.00 | 0.00 | 0.00 | 48 | 1006.2 |
| 20260506183902 | 79 | 98 | 6.0 | 12.0 | 0.00 | 0.00 | 0.00 | 48 | 1006.2 |
| 20260506183806 | 79 | 181 | 5.0 | 12.0 | 0.00 | 0.00 | 0.00 | 48 | 1006.1 |
| 20260506183603 | 79 | 169 | 3.0 | 12.0 | 0.00 | 0.00 | 0.00 | 48 | 1006.1 |
| 20260506183505 | 79 | 147 | 4.0 | 12.0 | 0.00 | 0.00 | 0.00 | 48 | 1006.1 |
| 20260506183402 | 79 | 159 | 6.0 | 12.0 | 0.00 | 0.00 | 0.00 | 48 | 1006.1 |
| 20260506183306 | 79 | 156 | 6.0 | 12.0 | 0.00 | 0.00 | 0.00 | 48 | 1006.1 |
| 20260506183203 | 79 | 150 | 6.0 | 12.0 | 0.00 | 0.00 | 0.00 | 48 | 1006.1 |
| 20260506183103 | 79 | 102 | 8.0 | 15.0 | 0.00 | 0.00 | 0.00 | 48 | 1006.1 |
| 20260506183007 | 79 | 104 | 7.0 | 16.0 | 0.00 | 0.00 | 0.00 | 48 | 1006.1 |
| 20260506182903 | 79 | 138 | 5.0 | 16.0 | 0.00 | 0.00 | 0.00 | 48 | 1006.1 |
| 20260506182804 | 79 | 131 | 5.0 | 16.0 | 0.00 | 0.00 | 0.00 | 48 | 1006.0 |
| 20260506182702 | 79 | 92 | 7.0 | 16.0 | 0.00 | 0.00 | 0.00 | 48 | 1006.1 |
| 20260506182603 | 79 | 158 | 8.0 | 16.0 | 0.00 | 0.00 | 0.00 | 48 | 1006.1 |
| 20260506182504 | 79 | 105 | 8.0 | 16.0 | 0.00 | 0.00 | 0.00 | 48 | 1006.1 |
| 20260506182403 | 79 | 121 | 10.0 | 16.0 | 0.00 | 0.00 | 0.00 | 48 | 1006.0 |
| 20260506182306 | 79 | 157 | 11.0 | 16.0 | 0.00 | 0.00 | 0.00 | 48 | 1006.1 |
| 20260506182202 | 79 | 150 | 8.0 | 14.0 | 0.00 | 0.00 | 0.00 | 48 | 1006.1 |
| 20260506182102 | 79 | 127 | 8.0 | 14.0 | 0.00 | 0.00 | 0.00 | 48 | 1006.1 |
| 20260506182006 | 79 | 101 | 10.0 | 14.0 | 0.00 | 0.00 | 0.00 | 48 | 1006.0 |
| 20260506181904 | 79 | 105 | 9.0 | 14.0 | 0.00 | 0.00 | 0.00 | 48 | 1006.1 |
| 20260506181803 | 79 | 144 | 7.0 | 12.0 | 0.00 | 0.00 | 0.00 | 48 | 1006.1 |
| 20260506181704 | 79 | 143 | 7.0 | 13.0 | 0.00 | 0.00 | 0.00 | 48 | 1006.1 |
| 20260506181602 | 79 | 171 | 6.0 | 13.0 | 0.00 | 0.00 | 0.00 | 48 | 1006.2 |
| 20260506181505 | 79 | 130 | 6.0 | 13.0 | 0.00 | 0.00 | 0.00 | 48 | 1006.1 |
| 20260506181407 | 79 | 157 | 6.0 | 13.0 | 0.00 | 0.00 | 0.00 | 48 | 1006.2 |
| 20260506181302 | 79 | 124 | 6.0 | 13.0 | 0.00 | 0.00 | 0.00 | 48 | 1006.1 |
| 20260506181203 | 79 | 111 | 5.0 | 13.0 | 0.00 | 0.00 | 0.00 | 48 | 1006.2 |
| 20260506181103 | 79 | 113 | 6.0 | 15.0 | 0.00 | 0.00 | 0.00 | 48 | 1006.1 |
| 20260506181006 | 79 | 142 | 9.0 | 15.0 | 0.00 | 0.00 | 0.00 | 48 | 1006.1 |
| 20260506180905 | 79 | 117 | 8.0 | 15.0 | 0.00 | 0.00 | 0.00 | 48 | 1006.1 |
| 20260506180804 | 79 | 94 | 7.0 | 15.0 | 0.00 | 0.00 | 0.00 | 48 | 1006.2 |
| 20260506180703 | 79 | 119 | 8.0 | 15.0 | 0.00 | 0.00 | 0.00 | 48 | 1006.1 |
| 20260506180603 | 79 | 144 | 8.0 | 15.0 | 0.00 | 0.00 | 0.00 | 48 | 1006.1 |
| 20260506180505 | 79 | 133 | 8.0 | 15.0 | 0.00 | 0.00 | 0.00 | 48 | 1006.1 |
| 20260506180402 | 79 | 157 | 9.0 | 15.0 | 0.00 | 0.00 | 0.00 | 48 | 1006.2 |
| 20260506180303 | 79 | 115 | 9.0 | 15.0 | 0.00 | 0.00 | 0.00 | 48 | 1006.1 |
| 20260506180104 | 79 | 84 | 8.0 | 15.0 | 0.00 | 0.00 | 0.00 | 49 | 1006.1 |
| 20260506180006 | 79 | 171 | 8.0 | 15.0 | 0.00 | 0.00 | 0.00 | 49 | 1006.2 |
| 20260506175803 | 80 | 121 | 7.0 | 12.0 | 0.00 | 0.00 | 0.00 | 49 | 1006.1 |
| 20260506175703 | 80 | 167 | 6.0 | 13.0 | 0.00 | 0.00 | 0.00 | 49 | 1006.1 |
| 20260506175603 | 80 | 154 | 5.0 | 13.0 | 0.00 | 0.00 | 0.00 | 49 | 1006.1 |
| 20260506175403 | 80 | 131 | 8.0 | 13.0 | 0.00 | 0.00 | 0.00 | 49 | 1006.2 |
| 20260506175203 | 80 | 145 | 8.0 | 13.0 | 0.00 | 0.00 | 0.00 | 49 | 1006.1 |
| 20260506174903 | 80 | 125 | 8.0 | 13.0 | 0.00 | 0.00 | 0.00 | 50 | 1006.1 |
| 20260506174803 | 80 | 102 | 7.0 | 11.0 | 0.00 | 0.00 | 0.00 | 50 | 1006.2 |
| 20260506174702 | 80 | 141 | 7.0 | 11.0 | 0.00 | 0.00 | 0.00 | 50 | 1006.2 |
| 20260506174603 | 80 | 114 | 6.0 | 11.0 | 0.00 | 0.00 | 0.00 | 51 | 1006.2 |
| 20260506174504 | 80 | 113 | 5.0 | 11.0 | 0.00 | 0.00 | 0.00 | 51 | 1006.2 |
| 20260506174406 | 80 | 136 | 7.0 | 11.0 | 0.00 | 0.00 | 0.00 | 50 | 1006.1 |
| 20260506174308 | 80 | 98 | 6.0 | 11.0 | 0.00 | 0.00 | 0.00 | 50 | 1006.2 |
| 20260506174203 | 80 | 138 | 4.0 | 11.0 | 0.00 | 0.00 | 0.00 | 50 | 1006.3 |
| 20260506174103 | 80 | 136 | 4.0 | 11.0 | 0.00 | 0.00 | 0.00 | 50 | 1006.1 |
| 20260506173903 | 80 | 128 | 8.0 | 13.0 | 0.00 | 0.00 | 0.00 | 50 | 1006.2 |
| 20260506173806 | 80 | 96 | 7.0 | 13.0 | 0.00 | 0.00 | 0.00 | 50 | 1006.2 |
| 20260506173703 | 80 | 133 | 5.0 | 13.0 | 0.00 | 0.00 | 0.00 | 50 | 1006.2 |
| 20260506173604 | 81 | 148 | 5.0 | 14.0 | 0.00 | 0.00 | 0.00 | 50 | 1006.2 |
| 20260506173506 | 81 | 129 | 7.0 | 14.0 | 0.00 | 0.00 | 0.00 | 50 | 1006.3 |
| 20260506173404 | 81 | 96 | 6.0 | 14.0 | 0.00 | 0.00 | 0.00 | 50 | 1006.2 |
| 20260506173304 | 81 | 99 | 6.0 | 14.0 | 0.00 | 0.00 | 0.00 | 50 | 1006.2 |
| 20260506173203 | 81 | 109 | 8.0 | 14.0 | 0.00 | 0.00 | 0.00 | 50 | 1006.2 |
| 20260506173103 | 81 | 128 | 9.0 | 14.0 | 0.00 | 0.00 | 0.00 | 50 | 1006.2 |
| 20260506173008 | 81 | 129 | 9.0 | 14.0 | 0.00 | 0.00 | 0.00 | 50 | 1006.1 |
| 20260506172903 | 81 | 107 | 10.0 | 14.0 | 0.00 | 0.00 | 0.00 | 50 | 1006.1 |
| 20260506172803 | 81 | 130 | 9.0 | 14.0 | 0.00 | 0.00 | 0.00 | 50 | 1006.2 |
| 20260506172604 | 81 | 128 | 5.0 | 13.0 | 0.00 | 0.00 | 0.00 | 50 | 1006.1 |
| 20260506172505 | 81 | 108 | 6.0 | 13.0 | 0.00 | 0.00 | 0.00 | 50 | 1006.2 |
| 20260506172402 | 81 | 132 | 7.0 | 13.0 | 0.00 | 0.00 | 0.00 | 50 | 1006.2 |
| 20260506172306 | 81 | 149 | 7.0 | 13.0 | 0.00 | 0.00 | 0.00 | 50 | 1006.2 |
| 20260506172204 | 81 | 134 | 7.0 | 13.0 | 0.00 | 0.00 | 0.00 | 50 | 1006.2 |
| 20260506172103 | 81 | 133 | 9.0 | 13.0 | 0.00 | 0.00 | 0.00 | 50 | 1006.2 |
| 20260506172007 | 81 | 136 | 9.0 | 14.0 | 0.00 | 0.00 | 0.00 | 50 | 1006.1 |
| 20260506171904 | 81 | 138 | 7.0 | 13.0 | 0.00 | 0.00 | 0.00 | 49 | 1006.1 |
| 20260506171806 | 81 | 128 | 5.0 | 14.0 | 0.00 | 0.00 | 0.00 | 49 | 1006.1 |
| 20260506171702 | 81 | 111 | 6.0 | 14.0 | 0.00 | 0.00 | 0.00 | 49 | 1006.1 |
| 20260506171604 | 81 | 151 | 7.0 | 14.0 | 0.00 | 0.00 | 0.00 | 49 | 1006.1 |
| 20260506171505 | 81 | 132 | 9.0 | 14.0 | 0.00 | 0.00 | 0.00 | 49 | 1006.2 |
| 20260506171407 | 81 | 125 | 9.0 | 14.0 | 0.00 | 0.00 | 0.00 | 49 | 1006.2 |
| 20260506171203 | 81 | 107 | 9.0 | 14.0 | 0.00 | 0.00 | 0.00 | 49 | 1006.2 |
| 20260506171103 | 81 | 123 | 10.0 | 14.0 | 0.00 | 0.00 | 0.00 | 49 | 1006.3 |
| 20260506171007 | 81 | 126 | 9.0 | 14.0 | 0.00 | 0.00 | 0.00 | 49 | 1006.3 |
| 20260506170904 | 81 | 112 | 8.0 | 13.0 | 0.00 | 0.00 | 0.00 | 50 | 1006.3 |
| 20260506170802 | 81 | 140 | 7.0 | 12.0 | 0.00 | 0.00 | 0.00 | 50 | 1006.3 |
| 20260506170604 | 82 | 136 | 5.0 | 12.0 | 0.00 | 0.00 | 0.00 | 50 | 1006.3 |
| 20260506170505 | 82 | 142 | 6.0 | 12.0 | 0.00 | 0.00 | 0.00 | 50 | 1006.3 |
| 20260506170403 | 82 | 113 | 7.0 | 12.0 | 0.00 | 0.00 | 0.00 | 50 | 1006.3 |
| 20260506170303 | 82 | 132 | 8.0 | 12.0 | 0.00 | 0.00 | 0.00 | 50 | 1006.3 |
| 20260506170201 | 82 | 155 | 9.0 | 12.0 | 0.00 | 0.00 | 0.00 | 50 | 1006.4 |
| 20260506170104 | 82 | 123 | 8.0 | 12.0 | 0.00 | 0.00 | 0.00 | 50 | 1006.3 |
| 20260506170009 | 82 | 148 | 7.0 | 12.0 | 0.00 | 0.00 | 0.00 | 50 | 1006.3 |
| 20260506165903 | 82 | 88 | 6.0 | 12.0 | 0.00 | 0.00 | 0.00 | 50 | 1006.3 |
| 20260506165803 | 82 | 139 | 6.0 | 14.0 | 0.00 | 0.00 | 0.00 | 50 | 1006.3 |
| 20260506165704 | 82 | 81 | 7.0 | 14.0 | 0.00 | 0.00 | 0.00 | 50 | 1006.4 |
| 20260506165605 | 82 | 138 | 7.0 | 14.0 | 0.00 | 0.00 | 0.00 | 50 | 1006.4 |
| 20260506165506 | 82 | 159 | 7.0 | 14.0 | 0.00 | 0.00 | 0.00 | 50 | 1006.4 |
| 20260506165403 | 82 | 105 | 8.0 | 14.0 | 0.00 | 0.00 | 0.00 | 50 | 1006.3 |
| 20260506165305 | 83 | 113 | 8.0 | 14.0 | 0.00 | 0.00 | 0.00 | 50 | 1006.4 |
| 20260506165203 | 83 | 89 | 8.0 | 14.0 | 0.00 | 0.00 | 0.00 | 50 | 1006.4 |
| 20260506165103 | 83 | 98 | 9.0 | 14.0 | 0.00 | 0.00 | 0.00 | 50 | 1006.3 |
| 20260506164901 | 83 | 98 | 8.0 | 13.0 | 0.00 | 0.00 | 0.00 | 50 | 1006.3 |
| 20260506164804 | 84 | 95 | 7.0 | 11.0 | 0.00 | 0.00 | 0.00 | 50 | 1006.3 |
| 20260506164703 | 84 | 126 | 8.0 | 11.0 | 0.00 | 0.00 | 0.00 | 50 | 1006.3 |
| 20260506164605 | 84 | 129 | 8.0 | 11.0 | 0.00 | 0.00 | 0.00 | 50 | 1006.3 |
| 20260506164503 | 84 | 116 | 5.0 | 9.0 | 0.00 | 0.00 | 0.00 | 51 | 1006.2 |
| 20260506164302 | 84 | 38 | 2.0 | 4.0 | 0.00 | 0.00 | 0.00 | 50 | 1006.1 |
| 20260506164203 | 84 | 108 | 1.0 | 3.0 | 0.00 | 0.00 | 0.00 | 50 | 1006.0 |
| 20260506164103 | 84 | 136 | 0.0 | 2.0 | 0.00 | 0.00 | 0.00 | 50 | 1006.1 |
| 20260506164008 | 84 | 213 | 0.0 | 0.0 | 0.00 | 0.00 | 0.00 | 50 | 1006.1 |
| 20260506163903 | 84 | 213 | 0.0 | 1.0 | 0.00 | 0.00 | 0.00 | 50 | 1006.0 |
| 20260506163804 | 84 | 213 | 0.0 | 1.0 | 0.00 | 0.00 | 0.00 | 50 | 1006.0 |
| 20260506163602 | 84 | 213 | 0.0 | 1.0 | 0.00 | 0.00 | 0.00 | 50 | 1006.0 |
| 20260506163505 | 84 | 213 | 0.0 | 1.0 | 0.00 | 0.00 | 0.00 | 50 | 1006.0 |
| 20260506163404 | 84 | 213 | 0.0 | 1.0 | 0.00 | 0.00 | 0.00 | 50 | 1006.0 |
| 20260506163302 | 84 | 213 | 0.0 | 1.0 | 0.00 | 0.00 | 0.00 | 50 | 1006.0 |
| 20260506163203 | 84 | 213 | 0.0 | 1.0 | 0.00 | 0.00 | 0.00 | 50 | 1006.0 |
| 20260506163006 | 84 | 213 | 0.0 | 1.0 | 0.00 | 0.00 | 0.00 | 50 | 1006.0 |
| 20260506162902 | 84 | 213 | 0.0 | 1.0 | 0.00 | 0.00 | 0.00 | 51 | 1005.9 |
| 20260506162806 | 84 | 213 | 0.0 | 1.0 | 0.00 | 0.00 | 0.00 | 51 | 1006.0 |
| 20260506162703 | 84 | 213 | 0.0 | 1.0 | 0.00 | 0.00 | 0.00 | 50 | 1006.0 |
| 20260506162602 | 84 | 213 | 0.0 | 1.0 | 0.00 | 0.00 | 0.00 | 50 | 1006.0 |
| 20260506162505 | 84 | 213 | 0.0 | 1.0 | 0.00 | 0.00 | 0.00 | 50 | 1006.0 |
| 20260506162306 | 84 | 213 | 0.0 | 1.0 | 0.00 | 0.00 | 0.00 | 50 | 1006.0 |
| 20260506162204 | 84 | 213 | 1.0 | 1.0 | 0.00 | 0.00 | 0.00 | 50 | 1006.1 |
| 20260506162103 | 84 | 213 | 0.0 | 1.0 | 0.00 | 0.00 | 0.00 | 50 | 1006.0 |
| 20260506161903 | 84 | 213 | 0.0 | 1.0 | 0.00 | 0.00 | 0.00 | 50 | 1006.0 |
| 20260506161804 | 84 | 213 | 0.0 | 1.0 | 0.00 | 0.00 | 0.00 | 50 | 1006.0 |
| 20260506161704 | 84 | 213 | 0.0 | 1.0 | 0.00 | 0.00 | 0.00 | 50 | 1006.0 |
| 20260506161505 | 84 | 213 | 0.0 | 1.0 | 0.00 | 0.00 | 0.00 | 50 | 1006.0 |
| 20260506161200 | 84 | 213 | 0.0 | 2.0 | 0.00 | 0.00 | 0.00 | 50 | 1006.0 |
| 20260506161103 | 84 | 213 | 0.0 | 2.0 | 0.00 | 0.00 | 0.00 | 50 | 1005.9 |
| 20260506161007 | 84 | 213 | 0.0 | 2.0 | 0.00 | 0.00 | 0.00 | 50 | 1006.0 |
| 20260506160903 | 84 | 213 | 1.0 | 2.0 | 0.00 | 0.00 | 0.00 | 50 | 1006.0 |
| 20260506160805 | 84 | 213 | 1.0 | 2.0 | 0.00 | 0.00 | 0.00 | 50 | 1006.0 |
| 20260506160704 | 84 | 214 | 1.0 | 2.0 | 0.00 | 0.00 | 0.00 | 50 | 1006.0 |
| 20260506160603 | 84 | 214 | 0.0 | 2.0 | 0.00 | 0.00 | 0.00 | 50 | 1006.0 |
| 20260506160504 | 84 | 214 | 0.0 | 2.0 | 0.00 | 0.00 | 0.00 | 50 | 1006.0 |
| 20260506160402 | 84 | 214 | 0.0 | 2.0 | 0.00 | 0.00 | 0.00 | 50 | 1006.0 |
| 20260506160304 | 84 | 214 | 0.0 | 2.0 | 0.00 | 0.00 | 0.00 | 50 | 1005.9 |
| 20260506160103 | 84 | 217 | 1.0 | 2.0 | 0.00 | 0.00 | 0.00 | 50 | 1006.0 |
| 20260506155904 | 84 | 221 | 0.0 | 2.0 | 0.00 | 0.00 | 0.00 | 50 | 1006.0 |
| 20260506155703 | 85 | 222 | 0.0 | 2.0 | 0.00 | 0.00 | 0.00 | 50 | 1005.9 |
| 20260506155600 | 85 | 222 | 0.0 | 3.0 | 0.00 | 0.00 | 0.00 | 50 | 1005.9 |
| 20260506155505 | 85 | 229 | 0.0 | 3.0 | 0.00 | 0.00 | 0.00 | 50 | 1006.0 |
| 20260506155403 | 85 | 221 | 0.0 | 3.0 | 0.00 | 0.00 | 0.00 | 50 | 1006.0 |
| 20260506155306 | 85 | 221 | 0.0 | 3.0 | 0.00 | 0.00 | 0.00 | 50 | 1005.9 |
| 20260506155203 | 85 | 221 | 1.0 | 3.0 | 0.00 | 0.00 | 0.00 | 49 | 1006.0 |
| 20260506155103 | 85 | 221 | 1.0 | 3.0 | 0.00 | 0.00 | 0.00 | 50 | 1006.0 |
| 20260506155009 | 85 | 221 | 1.0 | 3.0 | 0.00 | 0.00 | 0.00 | 50 | 1005.9 |
| 20260506154902 | 85 | 214 | 2.0 | 3.0 | 0.00 | 0.00 | 0.00 | 50 | 1005.9 |
| 20260506154804 | 85 | 211 | 1.0 | 3.0 | 0.00 | 0.00 | 0.00 | 50 | 1005.9 |
| 20260506154702 | 85 | 217 | 1.0 | 3.0 | 0.00 | 0.00 | 0.00 | 50 | 1006.0 |
| 20260506154607 | 85 | 212 | 1.0 | 3.0 | 0.00 | 0.00 | 0.00 | 50 | 1006.0 |
| 20260506154508 | 85 | 203 | 0.0 | 2.0 | 0.00 | 0.00 | 0.00 | 50 | 1005.9 |
| 20260506154402 | 85 | 203 | 0.0 | 1.0 | 0.00 | 0.00 | 0.00 | 50 | 1006.0 |
| 20260506154302 | 85 | 203 | 0.0 | 1.0 | 0.00 | 0.00 | 0.00 | 50 | 1005.9 |
| 20260506154203 | 85 | 203 | 1.0 | 1.0 | 0.00 | 0.00 | 0.00 | 50 | 1005.9 |
| 20260506154104 | 85 | 203 | 1.0 | 1.0 | 0.00 | 0.00 | 0.00 | 49 | 1005.9 |
| 20260506153903 | 85 | 203 | 0.0 | 1.0 | 0.00 | 0.00 | 0.00 | 49 | 1005.9 |
| 20260506153803 | 85 | 203 | 0.0 | 1.0 | 0.00 | 0.00 | 0.00 | 49 | 1005.9 |
| 20260506153703 | 85 | 203 | 0.0 | 0.0 | 0.00 | 0.00 | 0.00 | 49 | 1005.9 |
| 20260506153505 | 85 | 203 | 0.0 | 0.0 | 0.00 | 0.00 | 0.00 | 49 | 1005.9 |
| 20260506153404 | 85 | 203 | 0.0 | 0.0 | 0.00 | 0.00 | 0.00 | 49 | 1005.9 |
| 20260506153302 | 85 | 203 | 0.0 | 0.0 | 0.00 | 0.00 | 0.00 | 49 | 1005.8 |
| 20260506153203 | 85 | 203 | 0.0 | 0.0 | 0.00 | 0.00 | 0.00 | 49 | 1005.9 |
| 20260506153103 | 85 | 203 | 0.0 | 0.0 | 0.00 | 0.00 | 0.00 | 49 | 1005.9 |
| 20260506153006 | 85 | 203 | 0.0 | 0.0 | 0.00 | 0.00 | 0.00 | 49 | 1005.9 |
| 20260506152903 | 85 | 203 | 0.0 | 0.0 | 0.00 | 0.00 | 0.00 | 49 | 1005.9 |
| 20260506152803 | 85 | 203 | 0.0 | 0.0 | 0.00 | 0.00 | 0.00 | 49 | 1005.9 |
| 20260506152704 | 85 | 203 | 0.0 | 0.0 | 0.00 | 0.00 | 0.00 | 49 | 1005.8 |
| 20260506152602 | 85 | 203 | 0.0 | 0.0 | 0.00 | 0.00 | 0.00 | 49 | 1005.8 |
| 20260506152505 | 85 | 203 | 0.0 | 0.0 | 0.00 | 0.00 | 0.00 | 49 | 1005.8 |
| 20260506152405 | 85 | 203 | 0.0 | 0.0 | 0.00 | 0.00 | 0.00 | 49 | 1005.8 |
| 20260506152305 | 85 | 203 | 0.0 | 1.0 | 0.00 | 0.00 | 0.00 | 49 | 1005.8 |
| 20260506152201 | 85 | 203 | 0.0 | 1.0 | 0.00 | 0.00 | 0.00 | 49 | 1005.8 |
| 20260506152105 | 85 | 203 | 0.0 | 1.0 | 0.00 | 0.00 | 0.00 | 48 | 1005.8 |
| 20260506152006 | 85 | 203 | 0.0 | 1.0 | 0.00 | 0.00 | 0.00 | 48 | 1005.8 |
| 20260506151902 | 85 | 203 | 0.0 | 1.0 | 0.00 | 0.00 | 0.00 | 48 | 1005.8 |
| 20260506151703 | 86 | 203 | 0.0 | 1.0 | 0.00 | 0.00 | 0.00 | 48 | 1005.8 |
| 20260506151601 | 86 | 203 | 0.0 | 1.0 | 0.00 | 0.00 | 0.00 | 48 | 1005.7 |
| 20260506151505 | 86 | 203 | 0.0 | 1.0 | 0.00 | 0.00 | 0.00 | 48 | 1005.7 |
| 20260506151304 | 86 | 203 | 0.0 | 1.0 | 0.00 | 0.00 | 0.00 | 49 | 1005.8 |
| 20260506151204 | 86 | 203 | 0.0 | 1.0 | 0.00 | 0.00 | 0.00 | 49 | 1005.6 |
| 20260506151006 | 86 | 203 | 0.0 | 1.0 | 0.00 | 0.00 | 0.00 | 48 | 1005.7 |
| 20260506150903 | 86 | 203 | 0.0 | 1.0 | 0.00 | 0.00 | 0.00 | 48 | 1005.7 |
| 20260506150802 | 86 | 203 | 0.0 | 1.0 | 0.00 | 0.00 | 0.00 | 48 | 1005.7 |
| 20260506150603 | 86 | 203 | 0.0 | 1.0 | 0.00 | 0.00 | 0.00 | 48 | 1005.7 |
| 20260506150506 | 86 | 203 | 0.0 | 1.0 | 0.00 | 0.00 | 0.00 | 48 | 1005.7 |
| 20260506150402 | 86 | 203 | 0.0 | 1.0 | 0.00 | 0.00 | 0.00 | 48 | 1005.7 |
| 20260506150305 | 86 | 203 | 0.0 | 1.0 | 0.00 | 0.00 | 0.00 | 48 | 1005.7 |
| 20260506150203 | 86 | 203 | 0.0 | 1.0 | 0.00 | 0.00 | 0.00 | 48 | 1005.6 |
| 20260506150008 | 86 | 203 | 0.0 | 1.0 | 0.00 | 0.00 | 0.00 | 48 | 1005.6 |
| 20260506145802 | 86 | 203 | 0.0 | 1.0 | 0.00 | 0.00 | 0.00 | 48 | 1005.7 |
| 20260506145603 | 86 | 203 | 0.0 | 1.0 | 0.00 | 0.00 | 0.00 | 48 | 1005.6 |
| 20260506145503 | 86 | 203 | 0.0 | 1.0 | 0.00 | 0.00 | 0.00 | 48 | 1005.6 |
| 20260506145404 | 86 | 203 | 0.0 | 2.0 | 0.00 | 0.00 | 0.00 | 48 | 1005.6 |
| 20260506145305 | 86 | 203 | 0.0 | 2.0 | 0.00 | 0.00 | 0.00 | 47 | 1005.6 |
| 20260506145204 | 86 | 203 | 0.0 | 2.0 | 0.00 | 0.00 | 0.00 | 47 | 1005.7 |
| 20260506145103 | 86 | 203 | 0.0 | 2.0 | 0.00 | 0.00 | 0.00 | 47 | 1005.7 |
| 20260506145007 | 86 | 203 | 0.0 | 2.0 | 0.00 | 0.00 | 0.00 | 47 | 1005.5 |
| 20260506144903 | 86 | 203 | 1.0 | 2.0 | 0.00 | 0.00 | 0.00 | 47 | 1005.6 |
| 20260506144803 | 86 | 203 | 0.0 | 2.0 | 0.00 | 0.00 | 0.00 | 47 | 1005.6 |
| 20260506144703 | 86 | 203 | 1.0 | 2.0 | 0.00 | 0.00 | 0.00 | 47 | 1005.6 |
| 20260506144603 | 86 | 203 | 2.0 | 2.0 | 0.00 | 0.00 | 0.00 | 47 | 1005.6 |
| 20260506144504 | 86 | 203 | 2.0 | 2.0 | 0.00 | 0.00 | 0.00 | 47 | 1005.6 |
| 20260506144404 | 86 | 203 | 1.0 | 2.0 | 0.00 | 0.00 | 0.00 | 47 | 1005.6 |
| 20260506144204 | 86 | 210 | 1.0 | 2.0 | 0.00 | 0.00 | 0.00 | 47 | 1005.7 |
| 20260506144102 | 86 | 210 | 1.0 | 2.0 | 0.00 | 0.00 | 0.00 | 47 | 1005.6 |
| 20260506144005 | 86 | 207 | 1.0 | 2.0 | 0.00 | 0.00 | 0.00 | 47 | 1005.6 |
| 20260506143906 | 86 | 209 | 1.0 | 2.0 | 0.00 | 0.00 | 0.00 | 47 | 1005.6 |
| 20260506143703 | 87 | 216 | 0.0 | 0.0 | 0.00 | 0.00 | 0.00 | 47 | 1005.6 |
| 20260506143603 | 87 | 216 | 0.0 | 1.0 | 0.00 | 0.00 | 0.00 | 47 | 1005.7 |
| 20260506143505 | 87 | 200 | 0.0 | 1.0 | 0.00 | 0.00 | 0.00 | 47 | 1005.7 |
| 20260506143402 | 87 | 221 | 0.0 | 2.0 | 0.00 | 0.00 | 0.00 | 46 | 1005.7 |
| 20260506143204 | 87 | 242 | 0.0 | 2.0 | 0.00 | 0.00 | 0.00 | 46 | 1005.7 |
| 20260506143104 | 87 | 242 | 0.0 | 2.0 | 0.00 | 0.00 | 0.00 | 46 | 1005.7 |
| 20260506143006 | 87 | 246 | 0.0 | 2.0 | 0.00 | 0.00 | 0.00 | 46 | 1005.7 |
| 20260506142904 | 87 | 246 | 0.0 | 2.0 | 0.00 | 0.00 | 0.00 | 46 | 1005.6 |
| 20260506142803 | 87 | 250 | 1.0 | 2.0 | 0.00 | 0.00 | 0.00 | 46 | 1005.6 |
| 20260506142705 | 87 | 244 | 1.0 | 2.0 | 0.00 | 0.00 | 0.00 | 46 | 1005.6 |
| 20260506142603 | 87 | 227 | 1.0 | 2.0 | 0.00 | 0.00 | 0.00 | 46 | 1005.6 |
| 20260506142504 | 87 | 234 | 1.0 | 2.0 | 0.00 | 0.00 | 0.00 | 46 | 1005.7 |
| 20260506142403 | 87 | 251 | 1.0 | 2.0 | 0.00 | 0.00 | 0.00 | 46 | 1005.6 |
| 20260506142305 | 87 | 260 | 1.0 | 2.0 | 0.00 | 0.00 | 0.00 | 46 | 1005.6 |
| 20260506142203 | 87 | 261 | 1.0 | 2.0 | 0.00 | 0.00 | 0.00 | 46 | 1005.7 |
| 20260506142103 | 87 | 264 | 1.0 | 2.0 | 0.00 | 0.00 | 0.00 | 46 | 1005.7 |
| 20260506142006 | 87 | 263 | 1.0 | 2.0 | 0.00 | 0.00 | 0.00 | 46 | 1005.6 |
| 20260506141905 | 87 | 236 | 1.0 | 2.0 | 0.00 | 0.00 | 0.00 | 46 | 1005.7 |
| 20260506141803 | 87 | 236 | 0.0 | 2.0 | 0.00 | 0.00 | 0.00 | 46 | 1005.6 |
| 20260506141705 | 87 | 236 | 1.0 | 2.0 | 0.00 | 0.00 | 0.00 | 46 | 1005.6 |
| 20260506141602 | 87 | 247 | 1.0 | 2.0 | 0.00 | 0.00 | 0.00 | 46 | 1005.6 |
| 20260506141503 | 87 | 232 | 1.0 | 2.0 | 0.00 | 0.00 | 0.00 | 46 | 1005.6 |
| 20260506141403 | 87 | 230 | 0.0 | 2.0 | 0.00 | 0.00 | 0.00 | 46 | 1005.6 |
| 20260506141302 | 87 | 229 | 0.0 | 2.0 | 0.00 | 0.00 | 0.00 | 46 | 1005.6 |
| 20260506141204 | 87 | 231 | 1.0 | 2.0 | 0.00 | 0.00 | 0.00 | 46 | 1005.6 |
| 20260506140902 | 87 | 231 | 1.0 | 2.0 | 0.00 | 0.00 | 0.00 | 46 | 1005.6 |
| 20260506140804 | 87 | 232 | 1.0 | 2.0 | 0.00 | 0.00 | 0.00 | 46 | 1005.6 |
| 20260506140603 | 87 | 249 | 0.0 | 2.0 | 0.00 | 0.00 | 0.00 | 46 | 1005.5 |
| 20260506140505 | 87 | 234 | 0.0 | 2.0 | 0.00 | 0.00 | 0.00 | 46 | 1005.6 |
| 20260506140404 | 87 | 228 | 0.0 | 2.0 | 0.00 | 0.00 | 0.00 | 45 | 1005.6 |
| 20260506140303 | 87 | 228 | 0.0 | 2.0 | 0.00 | 0.00 | 0.00 | 45 | 1005.5 |
| 20260506140204 | 87 | 228 | 0.0 | 2.0 | 0.00 | 0.00 | 0.00 | 45 | 1005.5 |
| 20260506140105 | 87 | 228 | 0.0 | 2.0 | 0.00 | 0.00 | 0.00 | 45 | 1005.5 |
| 20260506140009 | 87 | 228 | 0.0 | 2.0 | 0.00 | 0.00 | 0.00 | 45 | 1005.5 |
| 20260506135705 | 87 | 248 | 1.0 | 3.0 | 0.00 | 0.00 | 0.00 | 45 | 1005.4 |
| 20260506135602 | 87 | 232 | 1.0 | 3.0 | 0.00 | 0.00 | 0.00 | 45 | 1005.4 |
| 20260506135402 | 87 | 227 | 1.0 | 3.0 | 0.00 | 0.00 | 0.00 | 45 | 1005.4 |
| 20260506135306 | 87 | 264 | 1.0 | 3.0 | 0.00 | 0.00 | 0.00 | 45 | 1005.4 |
| 20260506135203 | 87 | 251 | 1.0 | 3.0 | 0.00 | 0.00 | 0.00 | 45 | 1005.4 |
| 20260506135103 | 87 | 242 | 1.0 | 3.0 | 0.00 | 0.00 | 0.00 | 45 | 1005.4 |
| 20260506135005 | 88 | 247 | 1.0 | 3.0 | 0.00 | 0.00 | 0.00 | 45 | 1005.3 |
| 20260506134906 | 88 | 252 | 1.0 | 4.0 | 0.00 | 0.00 | 0.00 | 45 | 1005.3 |
| 20260506134806 | 88 | 227 | 0.0 | 4.0 | 0.00 | 0.00 | 0.00 | 45 | 1005.4 |
| 20260506134604 | 88 | 242 | 1.0 | 4.0 | 0.00 | 0.00 | 0.00 | 45 | 1005.3 |
| 20260506134505 | 88 | 246 | 1.0 | 4.0 | 0.00 | 0.00 | 0.00 | 45 | 1005.3 |
| 20260506134103 | 88 | 243 | 2.0 | 4.0 | 0.00 | 0.00 | 0.00 | 45 | 1005.3 |
| 20260506133902 | 88 | 242 | 2.0 | 3.0 | 0.00 | 0.00 | 0.00 | 45 | 1005.3 |
| 20260506133703 | 88 | 260 | 2.0 | 3.0 | 0.00 | 0.00 | 0.00 | 45 | 1005.3 |
| 20260506133604 | 88 | 249 | 2.0 | 4.0 | 0.00 | 0.00 | 0.00 | 45 | 1005.2 |
| 20260506133506 | 88 | 249 | 2.0 | 4.0 | 0.00 | 0.00 | 0.00 | 44 | 1005.3 |
| 20260506133403 | 88 | 270 | 1.0 | 4.0 | 0.00 | 0.00 | 0.00 | 44 | 1005.3 |
| 20260506133304 | 88 | 250 | 1.0 | 4.0 | 0.00 | 0.00 | 0.00 | 44 | 1005.3 |
| 20260506133202 | 88 | 259 | 1.0 | 4.0 | 0.00 | 0.00 | 0.00 | 44 | 1005.3 |
| 20260506133103 | 88 | 256 | 1.0 | 4.0 | 0.00 | 0.00 | 0.00 | 44 | 1005.3 |
| 20260506133005 | 88 | 256 | 2.0 | 4.0 | 0.00 | 0.00 | 0.00 | 44 | 1005.2 |
| 20260506132902 | 88 | 255 | 2.0 | 4.0 | 0.00 | 0.00 | 0.00 | 44 | 1005.2 |
| 20260506132803 | 88 | 252 | 2.0 | 4.0 | 0.00 | 0.00 | 0.00 | 44 | 1005.2 |
| 20260506132703 | 88 | 263 | 2.0 | 4.0 | 0.00 | 0.00 | 0.00 | 44 | 1005.3 |
| 20260506132603 | 89 | 261 | 3.0 | 4.0 | 0.00 | 0.00 | 0.00 | 44 | 1005.2 |
| 20260506132403 | 89 | 246 | 2.0 | 4.0 | 0.00 | 0.00 | 0.00 | 44 | 1005.2 |
| 20260506132305 | 89 | 296 | 2.0 | 4.0 | 0.00 | 0.00 | 0.00 | 44 | 1005.3 |
| 20260506132203 | 89 | 329 | 2.0 | 6.0 | 0.00 | 0.00 | 0.00 | 43 | 1005.2 |
| 20260506132103 | 89 | 253 | 2.0 | 6.0 | 0.00 | 0.00 | 0.00 | 43 | 1005.3 |
| 20260506132006 | 89 | 252 | 2.0 | 6.0 | 0.00 | 0.00 | 0.00 | 43 | 1005.2 |
| 20260506131802 | 89 | 269 | 2.0 | 6.0 | 0.00 | 0.00 | 0.00 | 43 | 1005.2 |
| 20260506131604 | 89 | 300 | 2.0 | 6.0 | 0.00 | 0.00 | 0.00 | 43 | 1005.2 |
| 20260506131404 | 89 | 291 | 2.0 | 6.0 | 0.00 | 0.00 | 0.00 | 42 | 1005.2 |
| 20260506131303 | 89 | 272 | 2.0 | 4.0 | 0.00 | 0.00 | 0.00 | 42 | 1005.2 |
| 20260506131202 | 89 | 250 | 2.0 | 4.0 | 0.00 | 0.00 | 0.00 | 42 | 1005.2 |
| 20260506131005 | 89 | 282 | 2.0 | 3.0 | 0.00 | 0.00 | 0.00 | 42 | 1005.1 |
| 20260506130903 | 89 | 254 | 2.0 | 3.0 | 0.00 | 0.00 | 0.00 | 41 | 1005.1 |
| 20260506130803 | 89 | 274 | 2.0 | 3.0 | 0.00 | 0.00 | 0.00 | 41 | 1005.2 |
| 20260506130703 | 90 | 239 | 2.0 | 3.0 | 0.00 | 0.00 | 0.00 | 42 | 1005.1 |
| 20260506130404 | 90 | 268 | 1.0 | 3.0 | 0.00 | 0.00 | 0.00 | 41 | 1005.1 |
| 20260506130303 | 90 | 270 | 1.0 | 3.0 | 0.00 | 0.00 | 0.00 | 42 | 1005.1 |
| 20260506130203 | 90 | 254 | 1.0 | 4.0 | 0.00 | 0.00 | 0.00 | 41 | 1005.2 |
| 20260506130007 | 90 | 278 | 1.0 | 5.0 | 0.00 | 0.00 | 0.00 | 41 | 1005.1 |
| 20260506125902 | 90 | 266 | 1.0 | 5.0 | 0.00 | 0.00 | 0.00 | 41 | 1005.1 |
| 20260506125802 | 90 | 246 | 1.0 | 5.0 | 0.00 | 0.00 | 0.00 | 41 | 1005.0 |
| 20260506125702 | 90 | 259 | 2.0 | 5.0 | 0.00 | 0.00 | 0.00 | 41 | 1005.1 |
| 20260506125602 | 90 | 281 | 2.0 | 5.0 | 0.00 | 0.00 | 0.00 | 40 | 1005.1 |
| 20260506125503 | 90 | 281 | 2.0 | 5.0 | 0.00 | 0.00 | 0.00 | 40 | 1005.0 |
| 20260506125401 | 90 | 294 | 2.0 | 5.0 | 0.00 | 0.00 | 0.00 | 40 | 1005.1 |
| 20260506125305 | 90 | 270 | 1.0 | 5.0 | 0.00 | 0.00 | 0.00 | 40 | 1005.0 |
| 20260506125202 | 90 | 256 | 2.0 | 4.0 | 0.00 | 0.00 | 0.00 | 41 | 1005.0 |
| 20260506124902 | 90 | 278 | 2.0 | 6.0 | 0.00 | 0.00 | 0.00 | 41 | 1005.0 |
| 20260506124801 | 90 | 273 | 1.0 | 6.0 | 0.00 | 0.00 | 0.00 | 41 | 1005.0 |
| 20260506124401 | 90 | 245 | 2.0 | 8.0 | 0.00 | 0.00 | 0.00 | 40 | 1005.1 |
| 20260506124301 | 90 | 267 | 3.0 | 9.0 | 0.00 | 0.00 | 0.00 | 41 | 1005.1 |
| 20260506124205 | 90 | 251 | 3.0 | 9.0 | 0.00 | 0.00 | 0.00 | 41 | 1005.0 |
| 20260506124103 | 90 | 267 | 3.0 | 9.0 | 0.00 | 0.00 | 0.00 | 41 | 1005.1 |
| 20260506124005 | 90 | 306 | 3.0 | 9.0 | 0.00 | 0.00 | 0.00 | 40 | 1005.1 |
| 20260506123905 | 90 | 286 | 3.0 | 9.0 | 0.00 | 0.00 | 0.00 | 40 | 1005.1 |
| 20260506123703 | 90 | 323 | 5.0 | 10.0 | 0.00 | 0.00 | 0.00 | 39 | 1005.1 |
| 20260506123602 | 90 | 309 | 5.0 | 10.0 | 0.00 | 0.00 | 0.00 | 39 | 1005.1 |
| 20260506123405 | 90 | 315 | 6.0 | 10.0 | 0.00 | 0.00 | 0.00 | 39 | 1005.1 |
| 20260506123301 | 90 | 274 | 5.0 | 10.0 | 0.00 | 0.00 | 0.00 | 39 | 1005.2 |
| 20260506123202 | 90 | 259 | 5.0 | 10.0 | 0.00 | 0.00 | 0.00 | 39 | 1005.2 |
| 20260506123104 | 90 | 249 | 6.0 | 10.0 | 0.00 | 0.00 | 0.00 | 39 | 1005.1 |
| 20260506123005 | 90 | 282 | 7.0 | 10.0 | 0.00 | 0.00 | 0.00 | 39 | 1005.2 |
| 20260506122903 | 90 | 265 | 6.0 | 10.0 | 0.00 | 0.00 | 0.00 | 39 | 1005.2 |
| 20260506122802 | 90 | 275 | 5.0 | 9.0 | 0.00 | 0.00 | 0.00 | 39 | 1005.2 |
| 20260506122703 | 90 | 271 | 6.0 | 9.0 | 0.00 | 0.00 | 0.00 | 40 | 1005.1 |
| 20260506122602 | 90 | 259 | 5.0 | 9.0 | 0.00 | 0.00 | 0.00 | 39 | 1005.2 |
| 20260506122504 | 90 | 265 | 3.0 | 8.0 | 0.00 | 0.00 | 0.00 | 40 | 1005.1 |
| 20260506122301 | 90 | 265 | 2.0 | 8.0 | 0.00 | 0.00 | 0.00 | 40 | 1005.1 |
| 20260506122202 | 90 | 215 | 3.0 | 8.0 | 0.00 | 0.00 | 0.00 | 40 | 1005.1 |
| 20260506122102 | 90 | 255 | 5.0 | 8.0 | 0.00 | 0.00 | 0.00 | 39 | 1005.2 |
| 20260506122007 | 91 | 260 | 6.0 | 8.0 | 0.00 | 0.00 | 0.00 | 39 | 1005.1 |
| 20260506121901 | 91 | 261 | 5.0 | 8.0 | 0.00 | 0.00 | 0.00 | 39 | 1005.2 |
| 20260506121702 | 91 | 248 | 3.0 | 8.0 | 0.00 | 0.00 | 0.00 | 40 | 1005.2 |
| 20260506121601 | 91 | 263 | 4.0 | 8.0 | 0.00 | 0.00 | 0.00 | 40 | 1005.2 |
| 20260506121504 | 91 | 257 | 4.0 | 8.0 | 0.00 | 0.00 | 0.00 | 39 | 1005.1 |
| 20260506121401 | 91 | 268 | 3.0 | 10.0 | 0.00 | 0.00 | 0.00 | 39 | 1005.2 |
| 20260506121301 | 91 | 285 | 3.0 | 10.0 | 0.00 | 0.00 | 0.00 | 39 | 1005.1 |
| 20260506121202 | 91 | 260 | 3.0 | 10.0 | 0.00 | 0.00 | 0.00 | 39 | 1005.1 |
| 20260506120902 | 91 | 236 | 4.0 | 10.0 | 0.00 | 0.00 | 0.00 | 39 | 1005.2 |
| 20260506120802 | 91 | 244 | 5.0 | 10.0 | 0.00 | 0.00 | 0.00 | 39 | 1005.2 |
| 20260506120701 | 91 | 272 | 6.0 | 10.0 | 0.00 | 0.00 | 0.00 | 39 | 1005.2 |
| 20260506120602 | 91 | 229 | 5.0 | 10.0 | 0.00 | 0.00 | 0.00 | 39 | 1005.2 |
| 20260506120504 | 91 | 232 | 3.0 | 7.0 | 0.00 | 0.00 | 0.00 | 40 | 1005.2 |
| 20260506120401 | 91 | 269 | 4.0 | 7.0 | 0.00 | 0.00 | 0.00 | 39 | 1005.2 |
| 20260506120302 | 91 | 254 | 3.0 | 7.0 | 0.00 | 0.00 | 0.00 | 39 | 1005.2 |
| 20260506120006 | 91 | 206 | 3.0 | 6.0 | 0.00 | 0.00 | 0.00 | 39 | 1005.2 |
| 20260506115903 | 91 | 250 | 3.0 | 8.0 | 0.00 | 0.00 | 0.00 | 40 | 1005.3 |
| 20260506115802 | 91 | 252 | 3.0 | 9.0 | 0.00 | 0.00 | 0.00 | 39 | 1005.2 |
| 20260506115603 | 91 | 235 | 3.0 | 11.0 | 0.00 | 0.00 | 0.00 | 38 | 1005.2 |
| 20260506115504 | 91 | 261 | 4.0 | 11.0 | 0.00 | 0.00 | 0.00 | 38 | 1005.3 |
| 20260506115401 | 91 | 221 | 3.0 | 11.0 | 0.00 | 0.00 | 0.00 | 39 | 1005.3 |
| 20260506115306 | 91 | 255 | 1.0 | 11.0 | 0.00 | 0.00 | 0.00 | 40 | 1005.2 |
| 20260506115202 | 91 | 220 | 2.0 | 11.0 | 0.00 | 0.00 | 0.00 | 39 | 1005.3 |
| 20260506115103 | 91 | 281 | 6.0 | 11.0 | 0.00 | 0.00 | 0.00 | 39 | 1005.2 |
| 20260506114902 | 91 | 276 | 6.0 | 11.0 | 0.00 | 0.00 | 0.00 | 40 | 1005.3 |
| 20260506114802 | 91 | 301 | 5.0 | 11.0 | 0.00 | 0.00 | 0.00 | 40 | 1005.2 |
| 20260506114601 | 91 | 296 | 5.0 | 9.0 | 0.00 | 0.00 | 0.00 | 39 | 1005.3 |
| 20260506114505 | 91 | 250 | 5.0 | 9.0 | 0.00 | 0.00 | 0.00 | 39 | 1005.3 |
| 20260506114404 | 91 | 278 | 5.0 | 8.0 | 0.00 | 0.00 | 0.00 | 39 | 1005.2 |
| 20260506114303 | 91 | 255 | 5.0 | 8.0 | 0.00 | 0.00 | 0.00 | 39 | 1005.3 |
| 20260506113901 | 91 | 257 | 3.0 | 7.0 | 0.00 | 0.00 | 0.00 | 38 | 1005.3 |
| 20260506113803 | 91 | 298 | 3.0 | 10.0 | 0.00 | 0.00 | 0.00 | 38 | 1005.2 |
| 20260506113603 | 91 | 257 | 3.0 | 10.0 | 0.00 | 0.00 | 0.00 | 39 | 1005.3 |
| 20260506113504 | 91 | 271 | 4.0 | 10.0 | 0.00 | 0.00 | 0.00 | 39 | 1005.3 |
| 20260506113404 | 91 | 274 | 4.0 | 10.0 | 0.00 | 0.00 | 0.00 | 37 | 1005.3 |
| 20260506113301 | 91 | 269 | 4.0 | 10.0 | 0.00 | 0.00 | 0.00 | 37 | 1005.3 |
| 20260506113204 | 91 | 275 | 5.0 | 10.0 | 0.00 | 0.00 | 0.00 | 37 | 1005.3 |
| 20260506113008 | 91 | 258 | 6.0 | 10.0 | 0.00 | 0.00 | 0.00 | 37 | 1005.3 |
| 20260506112903 | 91 | 263 | 3.0 | 8.0 | 0.00 | 0.00 | 0.00 | 38 | 1005.3 |
| 20260506112802 | 91 | 268 | 3.0 | 8.0 | 0.00 | 0.00 | 0.00 | 37 | 1005.4 |
| 20260506112703 | 91 | 264 | 4.0 | 10.0 | 0.00 | 0.00 | 0.00 | 36 | 1005.5 |
| 20260506112603 | 91 | 284 | 4.0 | 10.0 | 0.00 | 0.00 | 0.00 | 36 | 1005.4 |
| 20260506112504 | 91 | 293 | 3.0 | 10.0 | 0.00 | 0.00 | 0.00 | 36 | 1005.5 |
| 20260506112404 | 91 | 281 | 3.0 | 10.0 | 0.00 | 0.00 | 0.00 | 36 | 1005.4 |
| 20260506112306 | 91 | 315 | 3.0 | 11.0 | 0.00 | 0.00 | 0.00 | 37 | 1005.4 |
| 20260506112202 | 91 | 333 | 4.0 | 11.0 | 0.00 | 0.00 | 0.00 | 37 | 1005.5 |
| 20260506112103 | 91 | 302 | 4.0 | 11.0 | 0.00 | 0.00 | 0.00 | 37 | 1005.5 |
| 20260506112005 | 91 | 286 | 4.0 | 11.0 | 0.00 | 0.00 | 0.00 | 37 | 1005.5 |
| 20260506111903 | 91 | 281 | 5.0 | 11.0 | 0.00 | 0.00 | 0.00 | 37 | 1005.5 |
| 20260506111702 | 91 | 288 | 6.0 | 11.0 | 0.00 | 0.00 | 0.00 | 38 | 1005.6 |
| 20260506111603 | 91 | 319 | 8.0 | 11.0 | 0.00 | 0.00 | 0.00 | 38 | 1005.5 |
| 20260506111510 | 91 | 273 | 7.0 | 11.0 | 0.00 | 0.00 | 0.00 | 39 | 1005.5 |
| 20260506111405 | 91 | 260 | 6.0 | 10.0 | 0.00 | 0.00 | 0.00 | 39 | 1005.5 |
| 20260506111303 | 91 | 290 | 5.0 | 10.0 | 0.00 | 0.00 | 0.00 | 38 | 1005.5 |
| 20260506111201 | 91 | 289 | 6.0 | 11.0 | 0.00 | 0.00 | 0.00 | 38 | 1005.6 |
| 20260506111101 | 91 | 302 | 7.0 | 11.0 | 0.00 | 0.00 | 0.00 | 39 | 1005.5 |
| 20260506110902 | 91 | 239 | 7.0 | 11.0 | 0.00 | 0.00 | 0.00 | 39 | 1005.6 |
| 20260506110704 | 91 | 306 | 5.0 | 11.0 | 0.00 | 0.00 | 0.00 | 39 | 1005.5 |
| 20260506110603 | 91 | 265 | 4.0 | 11.0 | 0.00 | 0.00 | 0.00 | 38 | 1005.6 |
| 20260506110403 | 91 | 268 | 6.0 | 11.0 | 0.00 | 0.00 | 0.00 | 39 | 1005.6 |
| 20260506110202 | 91 | 240 | 3.0 | 10.0 | 0.00 | 0.00 | 0.00 | 38 | 1005.6 |
| 20260506110009 | 91 | 254 | 5.0 | 10.0 | 0.00 | 0.00 | 0.00 | 38 | 1005.6 |
| 20260506105903 | 92 | 246 | 5.0 | 10.0 | 0.00 | 0.00 | 0.00 | 38 | 1005.7 |
| 20260506105802 | 92 | 239 | 5.0 | 10.0 | 0.00 | 0.00 | 0.00 | 38 | 1005.7 |
| 20260506105705 | 92 | 238 | 7.0 | 10.0 | 0.00 | 0.00 | 0.00 | 38 | 1005.8 |
| 20260506105605 | 92 | 231 | 5.0 | 10.0 | 0.00 | 0.00 | 0.00 | 38 | 1005.8 |
| 20260506105504 | 92 | 219 | 3.0 | 9.0 | 0.00 | 0.00 | 0.00 | 38 | 1005.8 |
| 20260506105402 | 91 | 252 | 2.0 | 9.0 | 0.00 | 0.00 | 0.00 | 38 | 1005.8 |
| 20260506105305 | 91 | 235 | 2.0 | 9.0 | 0.00 | 0.00 | 0.00 | 37 | 1005.8 |
| 20260506105204 | 91 | 218 | 1.0 | 9.0 | 0.00 | 0.00 | 0.00 | 37 | 1005.8 |
| 20260506105102 | 91 | 173 | 3.0 | 11.0 | 0.00 | 0.00 | 0.00 | 37 | 1005.9 |
| 20260506105009 | 91 | 184 | 3.0 | 11.0 | 0.00 | 0.00 | 0.00 | 37 | 1005.9 |
| 20260506104805 | 91 | 304 | 4.0 | 12.0 | 0.00 | 0.00 | 0.00 | 38 | 1005.9 |
| 20260506104707 | 91 | 252 | 4.0 | 12.0 | 0.00 | 0.00 | 0.00 | 38 | 1005.9 |
| 20260506104604 | 91 | 308 | 4.0 | 12.0 | 0.00 | 0.00 | 0.00 | 39 | 1005.9 |
| 20260506104504 | 91 | 332 | 4.0 | 12.0 | 0.00 | 0.00 | 0.00 | 38 | 1005.9 |
| 20260506104402 | 91 | 265 | 6.0 | 12.0 | 0.00 | 0.00 | 0.00 | 38 | 1005.9 |
| 20260506104304 | 91 | 246 | 6.0 | 12.0 | 0.00 | 0.00 | 0.00 | 39 | 1005.9 |
| 20260506104204 | 91 | 280 | 7.0 | 14.0 | 0.00 | 0.00 | 0.00 | 39 | 1006.0 |
| 20260506104106 | 91 | 285 | 8.0 | 15.0 | 0.00 | 0.00 | 0.00 | 38 | 1005.9 |
| 20260506104008 | 91 | 284 | 7.0 | 15.0 | 0.00 | 0.00 | 0.00 | 37 | 1005.9 |
| 20260506103902 | 91 | 269 | 6.0 | 15.0 | 0.00 | 0.00 | 0.00 | 38 | 1005.9 |
| 20260506103804 | 91 | 246 | 5.0 | 15.0 | 0.00 | 0.00 | 0.00 | 38 | 1006.0 |
| 20260506103702 | 91 | 235 | 5.0 | 15.0 | 0.00 | 0.00 | 0.00 | 38 | 1005.9 |
| 20260506103604 | 91 | 250 | 7.0 | 15.0 | 0.00 | 0.00 | 0.00 | 37 | 1006.0 |
| 20260506103505 | 91 | 279 | 10.0 | 15.0 | 0.00 | 0.00 | 0.00 | 37 | 1006.0 |
| 20260506103304 | 91 | 287 | 7.0 | 12.0 | 0.00 | 0.00 | 0.00 | 38 | 1006.0 |
| 20260506103202 | 91 | 277 | 7.0 | 11.0 | 0.00 | 0.00 | 0.00 | 37 | 1006.0 |
| 20260506103101 | 91 | 266 | 7.0 | 11.0 | 0.00 | 0.00 | 0.00 | 36 | 1006.1 |
| 20260506103006 | 92 | 297 | 7.0 | 11.0 | 0.00 | 0.00 | 0.00 | 38 | 1006.0 |
| 20260506102905 | 92 | 297 | 6.0 | 10.0 | 0.00 | 0.00 | 0.00 | 37 | 1006.0 |
| 20260506102804 | 92 | 279 | 4.0 | 9.0 | 0.00 | 0.00 | 0.00 | 36 | 1005.9 |
| 20260506102703 | 92 | 257 | 5.0 | 9.0 | 0.00 | 0.00 | 0.00 | 36 | 1006.0 |
| 20260506102605 | 92 | 311 | 6.0 | 10.0 | 0.00 | 0.00 | 0.00 | 36 | 1006.0 |
| 20260506102505 | 92 | 286 | 5.0 | 10.0 | 0.00 | 0.00 | 0.00 | 37 | 1006.0 |
| 20260506102404 | 92 | 309 | 3.0 | 10.0 | 0.00 | 0.00 | 0.00 | 36 | 1006.0 |
| 20260506102305 | 91 | 310 | 4.0 | 10.0 | 0.00 | 0.00 | 0.00 | 36 | 1006.1 |
| 20260506102203 | 91 | 300 | 5.0 | 12.0 | 0.00 | 0.00 | 0.00 | 35 | 1006.0 |
| 20260506102105 | 91 | 288 | 5.0 | 12.0 | 0.00 | 0.00 | 0.00 | 36 | 1006.0 |
| 20260506102006 | 91 | 285 | 5.0 | 12.0 | 0.00 | 0.00 | 0.00 | 36 | 1006.1 |
| 20260506101904 | 91 | 311 | 6.0 | 12.0 | 0.00 | 0.00 | 0.00 | 36 | 1006.1 |
| 20260506101804 | 91 | 295 | 8.0 | 12.0 | 0.00 | 0.00 | 0.00 | 36 | 1006.0 |
| 20260506101703 | 91 | 313 | 8.0 | 12.0 | 0.00 | 0.00 | 0.00 | 36 | 1006.1 |
| 20260506101505 | 91 | 306 | 7.0 | 12.0 | 0.00 | 0.00 | 0.00 | 37 | 1006.0 |
| 20260506101402 | 91 | 355 | 7.0 | 12.0 | 0.00 | 0.00 | 0.00 | 37 | 1006.1 |
| 20260506101304 | 91 | 296 | 5.0 | 12.0 | 0.00 | 0.00 | 0.00 | 38 | 1006.0 |
| 20260506101105 | 91 | 310 | 7.0 | 12.0 | 0.00 | 0.00 | 0.00 | 36 | 1006.1 |
| 20260506101005 | 91 | 296 | 7.0 | 12.0 | 0.00 | 0.00 | 0.00 | 37 | 1006.0 |
| 20260506100905 | 91 | 296 | 8.0 | 12.0 | 0.00 | 0.00 | 0.00 | 37 | 1006.0 |
| 20260506100804 | 91 | 296 | 7.0 | 12.0 | 0.00 | 0.00 | 0.00 | 37 | 1006.1 |
| 20260506100703 | 91 | 296 | 6.0 | 12.0 | 0.00 | 0.00 | 0.00 | 37 | 1006.1 |
| 20260506100506 | 91 | 315 | 6.0 | 12.0 | 0.00 | 0.00 | 0.00 | 38 | 1006.1 |
| 20260506100303 | 91 | 309 | 6.0 | 15.0 | 0.00 | 0.00 | 0.00 | 36 | 1006.2 |
| 20260506100203 | 91 | 319 | 6.0 | 15.0 | 0.00 | 0.00 | 0.00 | 36 | 1006.2 |
| 20260506100103 | 91 | 309 | 4.0 | 15.0 | 0.00 | 0.00 | 0.00 | 37 | 1006.2 |
| 20260506100009 | 91 | 275 | 7.0 | 15.0 | 0.00 | 0.00 | 0.00 | 36 | 1006.2 |
| 20260506095805 | 91 | 282 | 8.0 | 15.0 | 0.00 | 0.00 | 0.00 | 37 | 1006.2 |
| 20260506095703 | 91 | 302 | 8.0 | 15.0 | 0.00 | 0.00 | 0.00 | 37 | 1006.1 |
| 20260506095506 | 91 | 305 | 8.0 | 15.0 | 0.00 | 0.00 | 0.00 | 37 | 1006.2 |
| 20260506095404 | 91 | 300 | 8.0 | 14.0 | 0.00 | 0.00 | 0.00 | 38 | 1006.2 |
| 20260506095205 | 91 | 298 | 8.0 | 14.0 | 0.00 | 0.00 | 0.00 | 38 | 1006.2 |
| 20260506095103 | 91 | 313 | 9.0 | 14.0 | 0.00 | 0.00 | 0.00 | 37 | 1006.3 |
| 20260506095008 | 91 | 311 | 10.0 | 14.0 | 0.00 | 0.00 | 0.00 | 38 | 1006.3 |
| 20260506094903 | 91 | 303 | 8.0 | 13.0 | 0.00 | 0.00 | 0.00 | 39 | 1006.3 |
| 20260506094803 | 91 | 331 | 7.0 | 14.0 | 0.00 | 0.00 | 0.00 | 39 | 1006.3 |
| 20260506094704 | 91 | 286 | 6.0 | 14.0 | 0.00 | 0.00 | 0.00 | 39 | 1006.3 |
| 20260506094604 | 91 | 275 | 6.0 | 14.0 | 0.00 | 0.00 | 0.00 | 39 | 1006.3 |
| 20260506094507 | 91 | 234 | 7.0 | 14.0 | 0.00 | 0.00 | 0.00 | 38 | 1006.3 |
| 20260506094103 | 91 | 284 | 10.0 | 14.0 | 0.00 | 0.00 | 0.00 | 39 | 1006.7 |
| 20260506093902 | 91 | 294 | 8.0 | 14.0 | 0.00 | 0.00 | 0.00 | 39 | 1006.6 |
| 20260506093803 | 91 | 314 | 6.0 | 14.0 | 0.00 | 0.00 | 0.00 | 38 | 1006.7 |
| 20260506093704 | 91 | 296 | 5.0 | 14.0 | 0.00 | 0.00 | 0.00 | 37 | 1006.6 |
| 20260506093604 | 91 | 286 | 7.0 | 14.0 | 0.00 | 0.00 | 0.00 | 38 | 1006.7 |
| 20260506093505 | 91 | 323 | 10.0 | 14.0 | 0.00 | 0.00 | 0.00 | 38 | 1006.8 |
| 20260506093404 | 92 | 302 | 9.0 | 14.0 | 0.00 | 0.00 | 0.00 | 38 | 1006.7 |
| 20260506093302 | 92 | 312 | 5.0 | 12.0 | 0.00 | 0.00 | 0.00 | 38 | 1006.8 |
| 20260506093205 | 92 | 298 | 4.0 | 12.0 | 0.00 | 0.00 | 0.00 | 38 | 1006.8 |
| 20260506093103 | 92 | 346 | 5.0 | 12.0 | 0.00 | 0.00 | 0.00 | 38 | 1006.8 |
| 20260506093007 | 91 | 340 | 6.0 | 12.0 | 0.00 | 0.00 | 0.00 | 38 | 1006.8 |
| 20260506092904 | 91 | 292 | 7.0 | 12.0 | 0.00 | 0.00 | 0.00 | 37 | 1006.8 |
| 20260506092805 | 91 | 292 | 8.0 | 12.0 | 0.00 | 0.00 | 0.00 | 38 | 1006.8 |
| 20260506092606 | 92 | 295 | 6.0 | 10.0 | 0.00 | 0.00 | 0.00 | 38 | 1006.8 |
| 20260506092505 | 91 | 309 | 5.0 | 10.0 | 0.00 | 0.00 | 0.00 | 38 | 1006.9 |
| 20260506092404 | 91 | 340 | 3.0 | 14.0 | 0.00 | 0.00 | 0.00 | 37 | 1006.9 |
| 20260506092306 | 91 | 322 | 4.0 | 14.0 | 0.00 | 0.00 | 0.00 | 36 | 1006.9 |
| 20260506092202 | 91 | 311 | 5.0 | 14.0 | 0.00 | 0.00 | 0.00 | 37 | 1006.9 |
| 20260506092104 | 91 | 333 | 3.0 | 14.0 | 0.00 | 0.00 | 0.00 | 37 | 1007.0 |
| 20260506092003 | 91 | 339 | 4.0 | 14.0 | 0.00 | 0.00 | 0.00 | 36 | 1006.9 |
| 20260506091903 | 91 | 313 | 5.0 | 14.0 | 0.00 | 0.00 | 0.00 | 35 | 1007.0 |
| 20260506091704 | 91 | 279 | 9.0 | 14.0 | 0.00 | 0.00 | 0.00 | 34 | 1007.0 |
| 20260506091601 | 91 | 254 | 6.0 | 14.0 | 0.00 | 0.00 | 0.00 | 36 | 1006.9 |
| 20260506091507 | 91 | 325 | 5.0 | 13.0 | 0.00 | 0.00 | 0.00 | 36 | 1006.9 |
| 20260506091405 | 91 | 355 | 5.0 | 13.0 | 0.00 | 0.00 | 0.00 | 35 | 1007.0 |
| 20260506091302 | 91 | 321 | 6.0 | 13.0 | 0.00 | 0.00 | 0.00 | 37 | 1007.1 |
| 20260506091202 | 91 | 349 | 5.0 | 13.0 | 0.00 | 0.00 | 0.00 | 36 | 1007.1 |
| 20260506091105 | 91 | 306 | 6.0 | 13.0 | 0.00 | 0.00 | 0.00 | 36 | 1007.0 |
| 20260506091005 | 91 | 292 | 8.0 | 13.0 | 0.00 | 0.00 | 0.00 | 36 | 1007.1 |
| 20260506090905 | 91 | 296 | 8.0 | 13.0 | 0.00 | 0.00 | 0.00 | 37 | 1007.1 |
| 20260506090704 | 91 | 310 | 7.0 | 13.0 | 0.00 | 0.00 | 0.00 | 36 | 1007.2 |
| 20260506090603 | 91 | 286 | 7.0 | 13.0 | 0.00 | 0.00 | 0.00 | 36 | 1007.2 |
| 20260506090506 | 92 | 289 | 9.0 | 13.0 | 0.00 | 0.00 | 0.00 | 36 | 1007.2 |
| 20260506090405 | 92 | 290 | 9.0 | 13.0 | 0.00 | 0.00 | 0.00 | 36 | 1007.2 |
| 20260506090303 | 92 | 278 | 9.0 | 12.0 | 0.00 | 0.00 | 0.00 | 36 | 1007.2 |
| 20260506090205 | 92 | 313 | 8.0 | 14.0 | 0.00 | 0.00 | 0.00 | 36 | 1007.2 |
| 20260506090103 | 92 | 281 | 6.0 | 14.0 | 0.00 | 0.00 | 0.00 | 37 | 1007.2 |
| 20260506090007 | 92 | 286 | 6.0 | 14.0 | 0.00 | 0.00 | 0.00 | 37 | 1007.3 |
| 20260506085901 | 92 | 265 | 6.0 | 14.0 | 0.00 | 0.00 | 0.00 | 37 | 1007.3 |
| 20260506085803 | 92 | 311 | 6.0 | 14.0 | 0.00 | 0.00 | 0.00 | 37 | 1007.1 |
| 20260506085703 | 91 | 269 | 6.0 | 14.0 | 0.00 | 0.00 | 0.00 | 37 | 1007.3 |
| 20260506085504 | 92 | 265 | 6.0 | 14.0 | 0.00 | 0.00 | 0.00 | 37 | 1007.2 |
| 20260506085403 | 92 | 234 | 6.0 | 14.0 | 0.00 | 0.00 | 0.00 | 37 | 1007.4 |
| 20260506085306 | 92 | 306 | 5.0 | 9.0 | 0.00 | 0.00 | 0.00 | 37 | 1007.4 |
| 20260506085201 | 92 | 292 | 5.0 | 9.0 | 0.00 | 0.00 | 0.00 | 38 | 1007.4 |
| 20260506085101 | 92 | 294 | 6.0 | 9.0 | 0.00 | 0.00 | 0.00 | 38 | 1007.4 |
| 20260506085005 | 92 | 251 | 5.0 | 9.0 | 0.00 | 0.00 | 0.00 | 39 | 1007.4 |
| 20260506084902 | 92 | 240 | 3.0 | 8.0 | 0.00 | 0.00 | 0.00 | 40 | 1007.4 |
| 20260506084804 | 92 | 238 | 3.0 | 8.0 | 0.00 | 0.00 | 0.00 | 39 | 1007.5 |
| 20260506084506 | 92 | 225 | 2.0 | 6.0 | 0.00 | 0.00 | 0.00 | 39 | 1007.4 |
| 20260506084402 | 92 | 34 | 2.0 | 6.0 | 0.00 | 0.00 | 0.00 | 39 | 1007.5 |
| 20260506084302 | 91 | 355 | 0.0 | 7.0 | 0.00 | 0.00 | 0.00 | 39 | 1007.6 |
| 20260506084203 | 91 | 341 | 1.0 | 7.0 | 0.00 | 0.00 | 0.00 | 39 | 1007.6 |
| 20260506084104 | 91 | 242 | 2.0 | 7.0 | 0.00 | 0.00 | 0.00 | 39 | 1007.5 |
| 20260506084008 | 91 | 235 | 3.0 | 8.0 | 0.00 | 0.00 | 0.00 | 39 | 1007.6 |
| 20260506083901 | 91 | 262 | 3.0 | 9.0 | 0.00 | 0.00 | 0.00 | 39 | 1007.7 |
| 20260506083802 | 91 | 265 | 1.0 | 9.0 | 0.00 | 0.00 | 0.00 | 40 | 1007.7 |
| 20260506083659 | 91 | 17 | 2.0 | 10.0 | 0.00 | 0.00 | 0.00 | 39 | 1007.7 |
| 20260506083603 | 91 | 17 | 3.0 | 10.0 | 0.00 | 0.00 | 0.00 | 40 | 1007.8 |
| 20260506083401 | 91 | 260 | 3.0 | 10.0 | 0.00 | 0.00 | 0.00 | 39 | 1007.8 |
| 20260506083203 | 91 | 278 | 5.0 | 12.0 | 0.00 | 0.00 | 0.00 | 40 | 1007.8 |
| 20260506082903 | 91 | 282 | 6.0 | 12.0 | 0.00 | 0.00 | 0.00 | 39 | 1007.9 |
| 20260506082802 | 91 | 267 | 5.0 | 12.0 | 0.00 | 0.00 | 0.00 | 39 | 1007.9 |
| 20260506082704 | 92 | 277 | 5.0 | 12.0 | 0.00 | 0.00 | 0.00 | 39 | 1007.9 |
| 20260506082603 | 91 | 281 | 5.0 | 12.0 | 0.00 | 0.00 | 0.00 | 39 | 1007.9 |
| 20260506082505 | 91 | 345 | 6.0 | 12.0 | 0.00 | 0.00 | 0.00 | 39 | 1007.9 |
| 20260506082404 | 91 | 355 | 5.0 | 12.0 | 0.00 | 0.00 | 0.00 | 40 | 1008.0 |
| 20260506082305 | 91 | 316 | 3.0 | 9.0 | 0.00 | 0.00 | 0.00 | 41 | 1007.9 |
| 20260506082202 | 91 | 355 | 1.0 | 9.0 | 0.00 | 0.00 | 0.00 | 41 | 1008.0 |
| 20260506082105 | 91 | 304 | 1.0 | 9.0 | 0.00 | 0.00 | 0.00 | 40 | 1008.0 |
| 20260506082008 | 91 | 355 | 3.0 | 9.0 | 0.00 | 0.00 | 0.00 | 40 | 1008.0 |
| 20260506081902 | 91 | 312 | 3.0 | 9.0 | 0.00 | 0.00 | 0.00 | 41 | 1008.1 |
| 20260506081802 | 91 | 192 | 2.0 | 9.0 | 0.00 | 0.00 | 0.00 | 40 | 1008.1 |
| 20260506081601 | 91 | 213 | 5.0 | 9.0 | 0.00 | 0.00 | 0.00 | 40 | 1008.0 |
| 20260506081505 | 91 | 206 | 4.0 | 9.0 | 0.00 | 0.00 | 0.00 | 41 | 1008.0 |
| 20260506081305 | 91 | 236 | 4.0 | 11.0 | 0.00 | 0.00 | 0.00 | 40 | 1008.0 |
| 20260506081202 | 91 | 261 | 4.0 | 11.0 | 0.00 | 0.00 | 0.00 | 39 | 1008.1 |
| 20260506081103 | 91 | 277 | 3.0 | 11.0 | 0.00 | 0.00 | 0.00 | 40 | 1008.1 |
| 20260506080902 | 91 | 267 | 5.0 | 11.0 | 0.00 | 0.00 | 0.00 | 40 | 1008.1 |
| 20260506080804 | 91 | 261 | 5.0 | 11.0 | 0.00 | 0.00 | 0.00 | 41 | 1008.1 |
| 20260506080702 | 91 | 243 | 7.0 | 11.0 | 0.00 | 0.00 | 0.00 | 40 | 1008.1 |
| 20260506080505 | 91 | 188 | 4.0 | 11.0 | 0.00 | 0.00 | 0.00 | 40 | 1008.1 |
| 20260506080404 | 91 | 198 | 3.0 | 7.0 | 0.00 | 0.00 | 0.00 | 41 | 1008.1 |
| 20260506080303 | 91 | 176 | 3.0 | 7.0 | 0.00 | 0.00 | 0.00 | 42 | 1008.2 |
| 20260506080203 | 91 | 223 | 3.0 | 6.0 | 0.00 | 0.00 | 0.00 | 41 | 1008.2 |
| 20260506073504 | 89 | 229 | 2.0 | 7.0 | 0.00 | 0.00 | 0.00 | 43 | 1008.7 |
| 20260506073402 | 89 | 228 | 3.0 | 7.0 | 0.00 | 0.00 | 0.00 | 43 | 1008.7 |
| 20260506073302 | 89 | 214 | 3.0 | 7.0 | 0.00 | 0.00 | 0.00 | 43 | 1008.8 |
| 20260506073007 | 89 | 240 | 3.0 | 7.0 | 0.00 | 0.00 | 0.00 | 44 | 1008.8 |
| 20260506072859 | 89 | 215 | 4.0 | 7.0 | 0.00 | 0.00 | 0.00 | 43 | 1008.8 |
| 20260506072802 | 89 | 183 | 3.0 | 9.0 | 0.00 | 0.00 | 0.00 | 44 | 1008.9 |
| 20260506072701 | 89 | 213 | 3.0 | 9.0 | 0.00 | 0.00 | 0.00 | 43 | 1008.9 |
| 20260506072201 | 89 | 209 | 5.0 | 9.0 | 0.00 | 0.00 | 0.00 | 42 | 1008.9 |
| 20260506072104 | 89 | 213 | 5.0 | 9.0 | 0.00 | 0.00 | 0.00 | 42 | 1009.0 |
| 20260506072006 | 89 | 206 | 3.0 | 9.0 | 0.00 | 0.00 | 0.00 | 43 | 1008.9 |
| 20260506071703 | 89 | 267 | 2.0 | 6.0 | 0.00 | 0.00 | 0.00 | 44 | 1009.1 |
| 20260506071603 | 89 | 261 | 1.0 | 6.0 | 0.00 | 0.00 | 0.00 | 44 | 1009.0 |
| 20260506071508 | 89 | 5 | 1.0 | 6.0 | 0.00 | 0.00 | 0.00 | 44 | 1009.1 |
| 20260506071403 | 88 | 26 | 1.0 | 6.0 | 0.00 | 0.00 | 0.00 | 45 | 1009.0 |
| 20260506071300 | 88 | 73 | 1.0 | 6.0 | 0.00 | 0.00 | 0.00 | 45 | 1009.1 |
| 20260506071203 | 88 | 60 | 2.0 | 6.0 | 0.00 | 0.00 | 0.00 | 44 | 1009.1 |
| 20260506071103 | 88 | 300 | 3.0 | 6.0 | 0.00 | 0.00 | 0.00 | 44 | 1009.1 |
| 20260506071005 | 88 | 282 | 2.0 | 6.0 | 0.00 | 0.00 | 0.00 | 45 | 1009.1 |
| 20260506070902 | 88 | 349 | 1.0 | 7.0 | 0.00 | 0.00 | 0.00 | 44 | 1009.1 |
| 20260506070803 | 88 | 336 | 1.0 | 7.0 | 0.00 | 0.00 | 0.00 | 44 | 1009.2 |
| 20260506070702 | 88 | 331 | 1.0 | 7.0 | 0.00 | 0.00 | 0.00 | 44 | 1009.2 |
| 20260506070604 | 88 | 328 | 2.0 | 7.0 | 0.00 | 0.00 | 0.00 | 44 | 1009.2 |
| 20260506070403 | 88 | 257 | 3.0 | 8.0 | 0.00 | 0.00 | 0.00 | 45 | 1009.2 |
| 20260506070302 | 88 | 251 | 3.0 | 8.0 | 0.00 | 0.00 | 0.00 | 46 | 1009.3 |
| 20260506070202 | 88 | 248 | 3.0 | 8.0 | 0.00 | 0.00 | 0.00 | 46 | 1009.2 |
| 20260506062504 | 87 | 161 | 4.0 | 6.0 | 0.00 | 0.00 | 0.00 | 48 | 1009.8 |
| 20260506062305 | 87 | 194 | 2.0 | 6.0 | 0.00 | 0.00 | 0.00 | 49 | 1009.9 |
| 20260506062203 | 87 | 187 | 2.0 | 6.0 | 0.00 | 0.00 | 0.00 | 49 | 1009.8 |
| 20260506062104 | 87 | 190 | 2.0 | 6.0 | 0.00 | 0.00 | 0.00 | 49 | 1009.9 |
| 20260506062007 | 87 | 207 | 2.0 | 6.0 | 0.00 | 0.00 | 0.00 | 48 | 1009.9 |
| 20260506061805 | 87 | 199 | 2.0 | 8.0 | 0.00 | 0.00 | 0.00 | 47 | 1009.9 |
| 20260506061702 | 87 | 91 | 3.0 | 8.0 | 0.00 | 0.00 | 0.00 | 48 | 1010.0 |
| 20260506061506 | 86 | 152 | 3.0 | 8.0 | 0.00 | 0.00 | 0.00 | 48 | 1010.0 |
| 20260506061404 | 86 | 145 | 3.0 | 8.0 | 0.00 | 0.00 | 0.00 | 48 | 1009.9 |
| 20260506061303 | 86 | 129 | 3.0 | 8.0 | 0.00 | 0.00 | 0.00 | 48 | 1010.0 |
| 20260506061202 | 86 | 146 | 3.0 | 8.0 | 0.00 | 0.00 | 0.00 | 47 | 1009.9 |
| 20260506061103 | 86 | 84 | 3.0 | 8.0 | 0.00 | 0.00 | 0.00 | 47 | 1010.0 |
| 20260506061005 | 86 | 129 | 3.0 | 8.0 | 0.00 | 0.00 | 0.00 | 48 | 1010.0 |
| 20260506060903 | 86 | 112 | 2.0 | 8.0 | 0.00 | 0.00 | 0.00 | 47 | 1010.0 |
| 20260506060804 | 86 | 105 | 3.0 | 8.0 | 0.00 | 0.00 | 0.00 | 48 | 1010.0 |
| 20260506060703 | 86 | 53 | 4.0 | 8.0 | 0.00 | 0.00 | 0.00 | 48 | 1010.0 |
| 20260506060402 | 86 | 45 | 3.0 | 9.0 | 0.00 | 0.00 | 0.00 | 49 | 1010.1 |
| 20260506060302 | 86 | 44 | 4.0 | 9.0 | 0.00 | 0.00 | 0.00 | 49 | 1010.0 |
| 20260506060201 | 86 | 67 | 4.0 | 9.0 | 0.00 | 0.00 | 0.00 | 49 | 1010.0 |
| 20260506051402 | 84 | 63 | 4.0 | 8.0 | 0.00 | 0.00 | 0.00 | 54 | 1010.4 |
| 20260506051303 | 84 | 119 | 5.0 | 8.0 | 0.00 | 0.00 | 0.00 | 53 | 1010.5 |
| 20260506051203 | 84 | 101 | 6.0 | 9.0 | 0.00 | 0.00 | 0.00 | 54 | 1010.5 |
| 20260506051103 | 84 | 121 | 5.0 | 9.0 | 0.00 | 0.00 | 0.00 | 54 | 1010.5 |
| 20260506051004 | 84 | 105 | 2.0 | 9.0 | 0.00 | 0.00 | 0.00 | 54 | 1010.4 |
| 20260506050900 | 84 | 162 | 1.0 | 9.0 | 0.00 | 0.00 | 0.00 | 54 | 1010.5 |
| 20260506050801 | 84 | 57 | 1.0 | 9.0 | 0.00 | 0.00 | 0.00 | 53 | 1010.4 |
| 20260506050702 | 84 | 131 | 2.0 | 9.0 | 0.00 | 0.00 | 0.00 | 53 | 1010.4 |
| 20260506050600 | 84 | 113 | 5.0 | 9.0 | 0.00 | 0.00 | 0.00 | 53 | 1010.5 |
| 20260506050303 | 84 | 155 | 4.0 | 9.0 | 0.00 | 0.00 | 0.00 | 54 | 1010.4 |
| 20260506050203 | 84 | 116 | 4.0 | 9.0 | 0.00 | 0.00 | 0.00 | 53 | 1010.5 |
| 20260506050107 | 84 | 118 | 5.0 | 9.0 | 0.00 | 0.00 | 0.00 | 54 | 1010.5 |
| 20260506045101 | 83 | 163 | 2.0 | 8.0 | 0.00 | 0.00 | 0.00 | 55 | 1010.4 |
| 20260506045004 | 83 | 150 | 2.0 | 8.0 | 0.00 | 0.00 | 0.00 | 55 | 1010.5 |
| 20260506044903 | 83 | 180 | 3.0 | 9.0 | 0.00 | 0.00 | 0.00 | 55 | 1010.4 |
| 20260506044801 | 83 | 143 | 4.0 | 9.0 | 0.00 | 0.00 | 0.00 | 55 | 1010.5 |
| 20260506044601 | 83 | 150 | 5.0 | 9.0 | 0.00 | 0.00 | 0.00 | 55 | 1010.4 |
| 20260506044504 | 83 | 141 | 5.0 | 9.0 | 0.00 | 0.00 | 0.00 | 55 | 1010.5 |
| 20260506044302 | 83 | 152 | 5.0 | 9.0 | 0.00 | 0.00 | 0.00 | 55 | 1010.5 |
| 20260506044201 | 83 | 133 | 5.0 | 9.0 | 0.00 | 0.00 | 0.00 | 56 | 1010.4 |
| 20260506044006 | 83 | 155 | 1.0 | 9.0 | 0.00 | 0.00 | 0.00 | 56 | 1010.4 |
| 20260506043802 | 83 | 126 | 3.0 | 9.0 | 0.00 | 0.00 | 0.00 | 57 | 1010.5 |
| 20260506043700 | 83 | 105 | 4.0 | 9.0 | 0.00 | 0.00 | 0.00 | 56 | 1010.5 |
| 20260506043602 | 83 | 176 | 5.0 | 9.0 | 0.00 | 0.00 | 0.00 | 56 | 1010.4 |
| 20260506043503 | 82 | 113 | 6.0 | 9.0 | 0.00 | 0.00 | 0.00 | 56 | 1010.4 |
| 20260506043203 | 82 | 58 | 4.0 | 6.0 | 0.00 | 0.00 | 0.00 | 57 | 1010.4 |
| 20260506043102 | 82 | 137 | 3.0 | 8.0 | 0.00 | 0.00 | 0.00 | 57 | 1010.4 |
| 20260506043005 | 82 | 101 | 4.0 | 8.0 | 0.00 | 0.00 | 0.00 | 57 | 1010.4 |
| 20260506042903 | 82 | 117 | 4.0 | 8.0 | 0.00 | 0.00 | 0.00 | 57 | 1010.4 |
| 20260506042801 | 82 | 111 | 3.0 | 8.0 | 0.00 | 0.00 | 0.00 | 57 | 1010.4 |
| 20260506042504 | 82 | 96 | 4.0 | 8.0 | 0.00 | 0.00 | 0.00 | 58 | 1010.5 |
| 20260506042402 | 82 | 360 | 4.0 | 8.0 | 0.00 | 0.00 | 0.00 | 58 | 1010.4 |
| 20260506042305 | 81 | 101 | 5.0 | 8.0 | 0.00 | 0.00 | 0.00 | 58 | 1010.4 |
| 20260506042203 | 81 | 84 | 3.0 | 8.0 | 0.00 | 0.00 | 0.00 | 58 | 1010.4 |
| 20260506042103 | 81 | 61 | 2.0 | 10.0 | 0.00 | 0.00 | 0.00 | 58 | 1010.4 |
| 20260506042006 | 81 | 123 | 4.0 | 10.0 | 0.00 | 0.00 | 0.00 | 58 | 1010.4 |
| 20260506041905 | 81 | 130 | 4.0 | 10.0 | 0.00 | 0.00 | 0.00 | 58 | 1010.4 |
| 20260506041801 | 81 | 113 | 3.0 | 10.0 | 0.00 | 0.00 | 0.00 | 58 | 1010.4 |
| 20260506041702 | 81 | 41 | 3.0 | 10.0 | 0.00 | 0.00 | 0.00 | 58 | 1010.4 |
| 20260506041600 | 81 | 149 | 4.0 | 10.0 | 0.00 | 0.00 | 0.00 | 58 | 1010.5 |
| 20260506041504 | 81 | 94 | 6.0 | 10.0 | 0.00 | 0.00 | 0.00 | 58 | 1010.4 |
| 20260506041400 | 81 | 123 | 7.0 | 10.0 | 0.00 | 0.00 | 0.00 | 58 | 1010.4 |
| 20260506041302 | 81 | 136 | 6.0 | 10.0 | 0.00 | 0.00 | 0.00 | 58 | 1010.4 |
| 20260506041202 | 81 | 145 | 5.0 | 10.0 | 0.00 | 0.00 | 0.00 | 59 | 1010.5 |
| 20260506041101 | 81 | 110 | 5.0 | 10.0 | 0.00 | 0.00 | 0.00 | 59 | 1010.5 |
| 20260506041005 | 81 | 96 | 4.0 | 10.0 | 0.00 | 0.00 | 0.00 | 59 | 1010.4 |
| 20260506040902 | 81 | 117 | 5.0 | 10.0 | 0.00 | 0.00 | 0.00 | 59 | 1010.4 |
| 20260506040802 | 81 | 161 | 4.0 | 10.0 | 0.00 | 0.00 | 0.00 | 59 | 1010.4 |
| 20260506040702 | 80 | 108 | 3.0 | 9.0 | 0.00 | 0.00 | 0.00 | 59 | 1010.4 |
| 20260506040602 | 80 | 115 | 4.0 | 9.0 | 0.00 | 0.00 | 0.00 | 59 | 1010.4 |
| 20260506040504 | 80 | 150 | 5.0 | 9.0 | 0.00 | 0.00 | 0.00 | 59 | 1010.4 |
| 20260506040402 | 80 | 139 | 4.0 | 9.0 | 0.00 | 0.00 | 0.00 | 60 | 1010.5 |
| 20260506040304 | 80 | 96 | 5.0 | 9.0 | 0.00 | 0.00 | 0.00 | 60 | 1010.5 |
| 20260506040201 | 80 | 99 | 6.0 | 9.0 | 0.00 | 0.00 | 0.00 | 59 | 1010.5 |
| 20260506040101 | 80 | 107 | 5.0 | 9.0 | 0.00 | 0.00 | 0.00 | 60 | 1010.5 |
| 20260506040004 | 80 | 53 | 5.0 | 9.0 | 0.00 | 0.00 | 0.00 | 60 | 1010.5 |
| 20260506035901 | 80 | 115 | 7.0 | 9.0 | 0.00 | 0.00 | 0.00 | 60 | 1010.4 |
| 20260506035804 | 80 | 160 | 6.0 | 9.0 | 0.00 | 0.00 | 0.00 | 60 | 1010.5 |
| 20260506035704 | 80 | 98 | 4.0 | 8.0 | 0.00 | 0.00 | 0.00 | 60 | 1010.4 |
| 20260506035403 | 80 | 157 | 5.0 | 10.0 | 0.00 | 0.00 | 0.00 | 60 | 1010.5 |
| 20260506035306 | 80 | 153 | 4.0 | 10.0 | 0.00 | 0.00 | 0.00 | 60 | 1010.5 |
| 20260506035203 | 80 | 121 | 2.0 | 10.0 | 0.00 | 0.00 | 0.00 | 60 | 1010.5 |
| 20260506035007 | 80 | 158 | 5.0 | 10.0 | 0.00 | 0.00 | 0.00 | 60 | 1010.5 |
| 20260506034902 | 80 | 123 | 6.0 | 10.0 | 0.00 | 0.00 | 0.00 | 60 | 1010.5 |
| 20260506034704 | 80 | 117 | 5.0 | 10.0 | 0.00 | 0.00 | 0.00 | 60 | 1010.5 |
| 20260506034601 | 79 | 134 | 4.0 | 9.0 | 0.00 | 0.00 | 0.00 | 60 | 1010.6 |
| 20260506034504 | 79 | 117 | 5.0 | 9.0 | 0.00 | 0.00 | 0.00 | 60 | 1010.5 |
| 20260506034404 | 79 | 150 | 4.0 | 9.0 | 0.00 | 0.00 | 0.00 | 60 | 1010.5 |
| 20260506034303 | 79 | 101 | 4.0 | 8.0 | 0.00 | 0.00 | 0.00 | 61 | 1010.5 |
| 20260506034203 | 79 | 103 | 4.0 | 8.0 | 0.00 | 0.00 | 0.00 | 61 | 1010.5 |
| 20260506034104 | 79 | 131 | 4.0 | 8.0 | 0.00 | 0.00 | 0.00 | 61 | 1010.5 |
| 20260506034006 | 79 | 158 | 3.0 | 8.0 | 0.00 | 0.00 | 0.00 | 61 | 1010.5 |
| 20260506033904 | 79 | 133 | 4.0 | 8.0 | 0.00 | 0.00 | 0.00 | 61 | 1010.6 |
| 20260506033803 | 79 | 191 | 5.0 | 8.0 | 0.00 | 0.00 | 0.00 | 61 | 1010.5 |
| 20260506033704 | 79 | 80 | 5.0 | 8.0 | 0.00 | 0.00 | 0.00 | 61 | 1010.5 |
| 20260506033505 | 79 | 80 | 6.0 | 8.0 | 0.00 | 0.00 | 0.00 | 61 | 1010.5 |
| 20260506033402 | 79 | 124 | 4.0 | 8.0 | 0.00 | 0.00 | 0.00 | 62 | 1010.6 |
| 20260506033303 | 79 | 164 | 4.0 | 8.0 | 0.00 | 0.00 | 0.00 | 61 | 1010.6 |
| 20260506033203 | 79 | 132 | 4.0 | 8.0 | 0.00 | 0.00 | 0.00 | 61 | 1010.6 |
| 20260506033103 | 79 | 170 | 2.0 | 8.0 | 0.00 | 0.00 | 0.00 | 62 | 1010.5 |
| 20260506033006 | 79 | 131 | 3.0 | 8.0 | 0.00 | 0.00 | 0.00 | 62 | 1010.5 |
| 20260506032902 | 79 | 50 | 4.0 | 8.0 | 0.00 | 0.00 | 0.00 | 62 | 1010.6 |
| 20260506032703 | 78 | 89 | 3.0 | 12.0 | 0.00 | 0.00 | 0.00 | 62 | 1010.5 |
| 20260506032602 | 78 | 89 | 4.0 | 12.0 | 0.00 | 0.00 | 0.00 | 62 | 1010.5 |
| 20260506032505 | 78 | 109 | 4.0 | 12.0 | 0.00 | 0.00 | 0.00 | 62 | 1010.5 |
| 20260506032203 | 78 | 115 | 4.0 | 12.0 | 0.00 | 0.00 | 0.00 | 62 | 1010.6 |
| 20260506032105 | 78 | 101 | 7.0 | 12.0 | 0.00 | 0.00 | 0.00 | 62 | 1010.5 |
| 20260506032005 | 78 | 134 | 7.0 | 12.0 | 0.00 | 0.00 | 0.00 | 62 | 1010.5 |
| 20260506031703 | 78 | 100 | 4.0 | 10.0 | 0.00 | 0.00 | 0.00 | 62 | 1010.4 |
| 20260506031504 | 78 | 112 | 5.0 | 10.0 | 0.00 | 0.00 | 0.00 | 62 | 1010.4 |
| 20260506031400 | 78 | 103 | 5.0 | 10.0 | 0.00 | 0.00 | 0.00 | 62 | 1010.4 |
| 20260506031303 | 78 | 115 | 5.0 | 10.0 | 0.00 | 0.00 | 0.00 | 62 | 1010.5 |
| 20260506031203 | 77 | 126 | 6.0 | 10.0 | 0.00 | 0.00 | 0.00 | 62 | 1010.4 |
| 20260506031103 | 77 | 97 | 7.0 | 10.0 | 0.00 | 0.00 | 0.00 | 62 | 1010.5 |
| 20260506031004 | 77 | 118 | 8.0 | 10.0 | 0.00 | 0.00 | 0.00 | 62 | 1010.4 |
| 20260506030904 | 77 | 119 | 7.0 | 10.0 | 0.00 | 0.00 | 0.00 | 62 | 1010.4 |
| 20260506030802 | 77 | 134 | 7.0 | 10.0 | 0.00 | 0.00 | 0.00 | 62 | 1010.4 |
| 20260506030704 | 77 | 143 | 7.0 | 10.0 | 0.00 | 0.00 | 0.00 | 62 | 1010.5 |
| 20260506030604 | 77 | 136 | 7.0 | 10.0 | 0.00 | 0.00 | 0.00 | 62 | 1010.4 |
| 20260506030505 | 77 | 134 | 7.0 | 10.0 | 0.00 | 0.00 | 0.00 | 62 | 1010.4 |
| 20260506030302 | 77 | 122 | 5.0 | 10.0 | 0.00 | 0.00 | 0.00 | 63 | 1010.4 |
| 20260506030204 | 77 | 156 | 5.0 | 9.0 | 0.00 | 0.00 | 0.00 | 62 | 1010.5 |
| 20260506030105 | 77 | 93 | 5.0 | 9.0 | 0.00 | 0.00 | 0.00 | 62 | 1010.4 |
| 20260506030009 | 77 | 128 | 6.0 | 9.0 | 0.00 | 0.00 | 0.00 | 62 | 1010.4 |
| 20260506025804 | 77 | 78 | 4.0 | 9.0 | 0.00 | 0.00 | 0.00 | 63 | 1010.4 |
| 20260506025704 | 77 | 101 | 3.0 | 9.0 | 0.00 | 0.00 | 0.00 | 63 | 1010.4 |
| 20260506025603 | 77 | 118 | 3.0 | 9.0 | 0.00 | 0.00 | 0.00 | 63 | 1010.4 |
| 20260506025506 | 77 | 130 | 3.0 | 9.0 | 0.00 | 0.00 | 0.00 | 63 | 1010.4 |
| 20260506025402 | 77 | 146 | 4.0 | 9.0 | 0.00 | 0.00 | 0.00 | 62 | 1010.4 |
| 20260506025305 | 77 | 111 | 6.0 | 9.0 | 0.00 | 0.00 | 0.00 | 62 | 1010.4 |
| 20260506025104 | 77 | 113 | 5.0 | 9.0 | 0.00 | 0.00 | 0.00 | 63 | 1010.4 |
| 20260506025010 | 77 | 128 | 3.0 | 9.0 | 0.00 | 0.00 | 0.00 | 63 | 1010.4 |
| 20260506024903 | 77 | 106 | 3.0 | 9.0 | 0.00 | 0.00 | 0.00 | 63 | 1010.3 |
| 20260506024803 | 77 | 103 | 3.0 | 9.0 | 0.00 | 0.00 | 0.00 | 63 | 1010.4 |
| 20260506024703 | 77 | 123 | 3.0 | 9.0 | 0.00 | 0.00 | 0.00 | 63 | 1010.4 |
| 20260506024604 | 77 | 74 | 3.0 | 9.0 | 0.00 | 0.00 | 0.00 | 63 | 1010.3 |
| 20260506024505 | 77 | 120 | 4.0 | 9.0 | 0.00 | 0.00 | 0.00 | 63 | 1010.4 |
| 20260506024403 | 76 | 118 | 5.0 | 9.0 | 0.00 | 0.00 | 0.00 | 63 | 1010.5 |
| 20260506024303 | 76 | 80 | 5.0 | 9.0 | 0.00 | 0.00 | 0.00 | 63 | 1010.4 |
| 20260506024203 | 76 | 115 | 4.0 | 8.0 | 0.00 | 0.00 | 0.00 | 63 | 1010.4 |
| 20260506024102 | 76 | 104 | 4.0 | 8.0 | 0.00 | 0.00 | 0.00 | 63 | 1010.4 |
| 20260506023904 | 76 | 95 | 3.0 | 8.0 | 0.00 | 0.00 | 0.00 | 63 | 1010.4 |
| 20260506023803 | 76 | 118 | 3.0 | 8.0 | 0.00 | 0.00 | 0.00 | 63 | 1010.3 |
| 20260506023704 | 76 | 82 | 4.0 | 8.0 | 0.00 | 0.00 | 0.00 | 63 | 1010.4 |
| 20260506023602 | 76 | 113 | 3.0 | 8.0 | 0.00 | 0.00 | 0.00 | 63 | 1010.4 |
| 20260506023505 | 76 | 130 | 3.0 | 8.0 | 0.00 | 0.00 | 0.00 | 63 | 1010.4 |
| 20260506023302 | 76 | 140 | 4.0 | 8.0 | 0.00 | 0.00 | 0.00 | 63 | 1010.4 |
| 20260506023203 | 76 | 125 | 3.0 | 8.0 | 0.00 | 0.00 | 0.00 | 63 | 1010.4 |
| 20260506023103 | 76 | 135 | 2.0 | 9.0 | 0.00 | 0.00 | 0.00 | 63 | 1010.4 |
| 20260506022903 | 76 | 125 | 4.0 | 9.0 | 0.00 | 0.00 | 0.00 | 63 | 1010.4 |
| 20260506022802 | 76 | 109 | 4.0 | 9.0 | 0.00 | 0.00 | 0.00 | 63 | 1010.3 |
| 20260506022703 | 76 | 101 | 3.0 | 9.0 | 0.00 | 0.00 | 0.00 | 63 | 1010.3 |
| 20260506022602 | 76 | 128 | 4.0 | 9.0 | 0.00 | 0.00 | 0.00 | 63 | 1010.3 |
| 20260506022505 | 76 | 109 | 5.0 | 9.0 | 0.00 | 0.00 | 0.00 | 63 | 1010.3 |
| 20260506022402 | 75 | 119 | 6.0 | 9.0 | 0.00 | 0.00 | 0.00 | 63 | 1010.3 |
| 20260506022306 | 75 | 126 | 4.0 | 9.0 | 0.00 | 0.00 | 0.00 | 63 | 1010.3 |
| 20260506022106 | 75 | 114 | 3.0 | 8.0 | 0.00 | 0.00 | 0.00 | 63 | 1010.2 |
| 20260506022008 | 75 | 171 | 4.0 | 8.0 | 0.00 | 0.00 | 0.00 | 63 | 1010.2 |
| 20260506021905 | 75 | 96 | 5.0 | 8.0 | 0.00 | 0.00 | 0.00 | 63 | 1010.2 |
| 20260506021802 | 75 | 114 | 5.0 | 8.0 | 0.00 | 0.00 | 0.00 | 63 | 1010.2 |
| 20260506021704 | 75 | 129 | 4.0 | 8.0 | 0.00 | 0.00 | 0.00 | 63 | 1010.2 |
| 20260506021602 | 75 | 125 | 4.0 | 8.0 | 0.00 | 0.00 | 0.00 | 63 | 1010.2 |
| 20260506021401 | 75 | 125 | 3.0 | 8.0 | 0.00 | 0.00 | 0.00 | 63 | 1010.2 |
| 20260506021302 | 75 | 65 | 3.0 | 8.0 | 0.00 | 0.00 | 0.00 | 63 | 1010.2 |
| 20260506021102 | 75 | 132 | 3.0 | 8.0 | 0.00 | 0.00 | 0.00 | 63 | 1010.1 |
| 20260506021006 | 75 | 339 | 4.0 | 8.0 | 0.00 | 0.00 | 0.00 | 63 | 1010.0 |
| 20260506020903 | 75 | 92 | 3.0 | 8.0 | 0.00 | 0.00 | 0.00 | 63 | 1010.1 |
| 20260506020802 | 75 | 91 | 3.0 | 9.0 | 0.00 | 0.00 | 0.00 | 63 | 1010.1 |
| 20260506020602 | 75 | 123 | 3.0 | 9.0 | 0.00 | 0.00 | 0.00 | 63 | 1010.0 |
| 20260506020402 | 74 | 31 | 2.0 | 9.0 | 0.00 | 0.00 | 0.00 | 63 | 1010.0 |
| 20260506020303 | 74 | 88 | 2.0 | 9.0 | 0.00 | 0.00 | 0.00 | 63 | 1010.0 |
| 20260506020202 | 74 | 158 | 3.0 | 9.0 | 0.00 | 0.00 | 0.00 | 63 | 1010.0 |
| 20260506020104 | 74 | 82 | 5.0 | 9.0 | 0.00 | 0.00 | 0.00 | 63 | 1010.0 |
| 20260506020009 | 74 | 113 | 4.0 | 9.0 | 0.00 | 0.00 | 0.00 | 64 | 1010.0 |
| 20260506015902 | 74 | 82 | 2.0 | 6.0 | 0.00 | 0.00 | 0.00 | 64 | 1010.0 |
| 20260506015803 | 74 | 86 | 2.0 | 6.0 | 0.00 | 0.00 | 0.00 | 64 | 1010.0 |
| 20260506015703 | 74 | 96 | 2.0 | 6.0 | 0.00 | 0.00 | 0.00 | 64 | 1010.0 |
| 20260506015603 | 74 | 90 | 3.0 | 6.0 | 0.00 | 0.00 | 0.00 | 64 | 1010.0 |
| 20260506015505 | 74 | 17 | 4.0 | 6.0 | 0.00 | 0.00 | 0.00 | 64 | 1010.0 |
| 20260506015404 | 74 | 130 | 3.0 | 7.0 | 0.00 | 0.00 | 0.00 | 64 | 1010.0 |
| 20260506015305 | 73 | 105 | 3.0 | 7.0 | 0.00 | 0.00 | 0.00 | 65 | 1010.0 |
| 20260506015103 | 73 | 137 | 2.0 | 9.0 | 0.00 | 0.00 | 0.00 | 65 | 1010.0 |
| 20260506015006 | 73 | 107 | 2.0 | 9.0 | 0.00 | 0.00 | 0.00 | 65 | 1009.9 |
| 20260506014903 | 73 | 109 | 3.0 | 9.0 | 0.00 | 0.00 | 0.00 | 65 | 1009.9 |
| 20260506014803 | 73 | 99 | 2.0 | 9.0 | 0.00 | 0.00 | 0.00 | 65 | 1009.9 |
| 20260506014703 | 73 | 81 | 2.0 | 9.0 | 0.00 | 0.00 | 0.00 | 65 | 1009.9 |
| 20260506014603 | 73 | 117 | 3.0 | 9.0 | 0.00 | 0.00 | 0.00 | 65 | 1009.9 |
| 20260506014505 | 73 | 95 | 4.0 | 9.0 | 0.00 | 0.00 | 0.00 | 65 | 1009.8 |
| 20260506014403 | 73 | 119 | 4.0 | 9.0 | 0.00 | 0.00 | 0.00 | 65 | 1009.9 |
| 20260506014303 | 73 | 107 | 2.0 | 7.0 | 0.00 | 0.00 | 0.00 | 65 | 1009.9 |
| 20260506014203 | 73 | 130 | 1.0 | 7.0 | 0.00 | 0.00 | 0.00 | 65 | 1009.9 |
| 20260506014103 | 72 | 78 | 1.0 | 7.0 | 0.00 | 0.00 | 0.00 | 65 | 1009.9 |
| 20260506013904 | 72 | 96 | 2.0 | 7.0 | 0.00 | 0.00 | 0.00 | 65 | 1009.8 |
| 20260506013803 | 72 | 124 | 2.0 | 7.0 | 0.00 | 0.00 | 0.00 | 65 | 1009.8 |
| 20260506013703 | 72 | 80 | 3.0 | 7.0 | 0.00 | 0.00 | 0.00 | 65 | 1009.8 |
| 20260506013602 | 72 | 86 | 2.0 | 7.0 | 0.00 | 0.00 | 0.00 | 65 | 1009.9 |
| 20260506013504 | 72 | 100 | 2.0 | 7.0 | 0.00 | 0.00 | 0.00 | 65 | 1009.9 |
| 20260506013403 | 72 | 116 | 2.0 | 6.0 | 0.00 | 0.00 | 0.00 | 65 | 1009.7 |
| 20260506013203 | 72 | 132 | 2.0 | 6.0 | 0.00 | 0.00 | 0.00 | 65 | 1009.8 |
| 20260506013103 | 72 | 98 | 2.0 | 6.0 | 0.00 | 0.00 | 0.00 | 65 | 1009.8 |
| 20260506013007 | 72 | 113 | 2.0 | 6.0 | 0.00 | 0.00 | 0.00 | 65 | 1009.8 |
| 20260506012903 | 72 | 80 | 3.0 | 6.0 | 0.00 | 0.00 | 0.00 | 65 | 1009.8 |
| 20260506012702 | 72 | 90 | 2.0 | 6.0 | 0.00 | 0.00 | 0.00 | 65 | 1009.8 |
| 20260506012603 | 72 | 88 | 2.0 | 6.0 | 0.00 | 0.00 | 0.00 | 65 | 1009.8 |
| 20260506012504 | 72 | 95 | 2.0 | 6.0 | 0.00 | 0.00 | 0.00 | 65 | 1009.8 |
| 20260506012307 | 72 | 132 | 3.0 | 5.0 | 0.00 | 0.00 | 0.00 | 66 | 1009.7 |
| 20260506012159 | 72 | 101 | 2.0 | 4.0 | 0.00 | 0.00 | 0.00 | 66 | 1009.7 |
| 20260506012104 | 72 | 100 | 2.0 | 4.0 | 0.00 | 0.00 | 0.00 | 66 | 1009.6 |
| 20260506012006 | 72 | 69 | 2.0 | 4.0 | 0.00 | 0.00 | 0.00 | 66 | 1009.6 |
| 20260506011905 | 71 | 89 | 2.0 | 4.0 | 0.00 | 0.00 | 0.00 | 66 | 1009.6 |
| 20260506011803 | 71 | 113 | 2.0 | 4.0 | 0.00 | 0.00 | 0.00 | 66 | 1009.7 |
| 20260506011705 | 71 | 115 | 0.0 | 4.0 | 0.00 | 0.00 | 0.00 | 66 | 1009.6 |
| 20260506011606 | 71 | 104 | 1.0 | 4.0 | 0.00 | 0.00 | 0.00 | 66 | 1009.6 |
| 20260506011505 | 71 | 98 | 1.0 | 4.0 | 0.00 | 0.00 | 0.00 | 66 | 1009.7 |
| 20260506011303 | 71 | 123 | 1.0 | 3.0 | 0.00 | 0.00 | 0.00 | 67 | 1009.7 |
| 20260506011203 | 71 | 96 | 1.0 | 3.0 | 0.00 | 0.00 | 0.00 | 67 | 1009.6 |
| 20260506011102 | 71 | 93 | 0.0 | 3.0 | 0.00 | 0.00 | 0.00 | 67 | 1009.6 |
| 20260506011006 | 71 | 109 | 0.0 | 3.0 | 0.00 | 0.00 | 0.00 | 67 | 1009.6 |
| 20260506010903 | 71 | 99 | 1.0 | 3.0 | 0.00 | 0.00 | 0.00 | 67 | 1009.5 |
| 20260506010704 | 71 | 109 | 1.0 | 3.0 | 0.00 | 0.00 | 0.00 | 67 | 1009.6 |
| 20260506010603 | 71 | 88 | 2.0 | 3.0 | 0.00 | 0.00 | 0.00 | 67 | 1009.6 |
| 20260506010505 | 71 | 114 | 1.0 | 3.0 | 0.00 | 0.00 | 0.00 | 67 | 1009.6 |
| 20260506010402 | 71 | 104 | 1.0 | 3.0 | 0.00 | 0.00 | 0.00 | 67 | 1009.6 |
| 20260506010302 | 71 | 103 | 0.0 | 3.0 | 0.00 | 0.00 | 0.00 | 67 | 1009.6 |
| 20260506010203 | 71 | 88 | 0.0 | 3.0 | 0.00 | 0.00 | 0.00 | 67 | 1009.6 |
| 20260506010100 | 71 | 87 | 0.0 | 3.0 | 0.00 | 0.00 | 0.00 | 67 | 1009.5 |
| 20260506010009 | 71 | 88 | 0.0 | 3.0 | 0.00 | 0.00 | 0.00 | 67 | 1009.5 |
| 20260506005903 | 71 | 317 | 1.0 | 3.0 | 0.00 | 0.00 | 0.00 | 67 | 1009.6 |
| 20260506005803 | 71 | 114 | 2.0 | 3.0 | 0.00 | 0.00 | 0.00 | 67 | 1009.6 |
| 20260506005703 | 71 | 96 | 2.0 | 3.0 | 0.00 | 0.00 | 0.00 | 67 | 1009.6 |
| 20260506005505 | 71 | 69 | 1.0 | 3.0 | 0.00 | 0.00 | 0.00 | 67 | 1009.5 |
| 20260506005402 | 71 | 67 | 1.0 | 3.0 | 0.00 | 0.00 | 0.00 | 67 | 1009.5 |
| 20260506005305 | 71 | 71 | 1.0 | 3.0 | 0.00 | 0.00 | 0.00 | 67 | 1009.5 |
| 20260506005204 | 71 | 69 | 1.0 | 3.0 | 0.00 | 0.00 | 0.00 | 67 | 1009.5 |
| 20260506005104 | 71 | 96 | 1.0 | 3.0 | 0.00 | 0.00 | 0.00 | 67 | 1009.5 |
| 20260506005006 | 71 | 115 | 1.0 | 3.0 | 0.00 | 0.00 | 0.00 | 67 | 1009.5 |
| 20260506004802 | 71 | 91 | 1.0 | 4.0 | 0.00 | 0.00 | 0.00 | 67 | 1009.5 |
| 20260506004702 | 71 | 72 | 0.0 | 4.0 | 0.00 | 0.00 | 0.00 | 67 | 1009.5 |
| 20260506004603 | 71 | 90 | 0.0 | 4.0 | 0.00 | 0.00 | 0.00 | 67 | 1009.4 |
| 20260506004503 | 71 | 92 | 0.0 | 4.0 | 0.00 | 0.00 | 0.00 | 67 | 1009.4 |
| 20260506004404 | 71 | 110 | 1.0 | 4.0 | 0.00 | 0.00 | 0.00 | 67 | 1009.4 |
| 20260506004301 | 71 | 81 | 1.0 | 6.0 | 0.00 | 0.00 | 0.00 | 67 | 1009.5 |
| 20260506004103 | 71 | 82 | 2.0 | 6.0 | 0.00 | 0.00 | 0.00 | 66 | 1009.4 |
| 20260506004006 | 71 | 64 | 2.0 | 6.0 | 0.00 | 0.00 | 0.00 | 66 | 1009.5 |
| 20260506003900 | 71 | 81 | 2.0 | 6.0 | 0.00 | 0.00 | 0.00 | 66 | 1009.5 |
| 20260506003803 | 71 | 115 | 2.0 | 6.0 | 0.00 | 0.00 | 0.00 | 66 | 1009.4 |
| 20260506003603 | 71 | 59 | 2.0 | 6.0 | 0.00 | 0.00 | 0.00 | 66 | 1009.4 |
| 20260506003505 | 71 | 95 | 2.0 | 6.0 | 0.00 | 0.00 | 0.00 | 66 | 1009.4 |
| 20260506003401 | 71 | 63 | 3.0 | 6.0 | 0.00 | 0.00 | 0.00 | 66 | 1009.3 |
| 20260506003303 | 71 | 58 | 4.0 | 6.0 | 0.00 | 0.00 | 0.00 | 66 | 1009.4 |
| 20260506003201 | 71 | 88 | 3.0 | 7.0 | 0.00 | 0.00 | 0.00 | 66 | 1009.4 |
| 20260506003101 | 71 | 65 | 3.0 | 7.0 | 0.00 | 0.00 | 0.00 | 66 | 1009.4 |
| 20260506003007 | 71 | 74 | 2.0 | 7.0 | 0.00 | 0.00 | 0.00 | 66 | 1009.3 |
| 20260506002804 | 71 | 91 | 2.0 | 4.0 | 0.00 | 0.00 | 0.00 | 66 | 1009.3 |
| 20260506002701 | 71 | 40 | 2.0 | 4.0 | 0.00 | 0.00 | 0.00 | 66 | 1009.2 |
| 20260506002602 | 71 | 54 | 3.0 | 4.0 | 0.00 | 0.00 | 0.00 | 66 | 1009.2 |
| 20260506002505 | 71 | 44 | 3.0 | 4.0 | 0.00 | 0.00 | 0.00 | 66 | 1009.2 |
| 20260506002402 | 71 | 50 | 3.0 | 4.0 | 0.00 | 0.00 | 0.00 | 66 | 1009.3 |
| 20260506002305 | 71 | 50 | 3.0 | 4.0 | 0.00 | 0.00 | 0.00 | 65 | 1009.2 |
| 20260506002204 | 71 | 51 | 3.0 | 4.0 | 0.00 | 0.00 | 0.00 | 65 | 1009.2 |
| 20260506002005 | 72 | 54 | 1.0 | 4.0 | 0.00 | 0.00 | 0.00 | 65 | 1009.1 |
| 20260506001902 | 72 | 59 | 1.0 | 4.0 | 0.00 | 0.00 | 0.00 | 65 | 1009.1 |
| 20260506001802 | 72 | 53 | 1.0 | 4.0 | 0.00 | 0.00 | 0.00 | 65 | 1009.2 |
| 20260506001702 | 72 | 51 | 2.0 | 4.0 | 0.00 | 0.00 | 0.00 | 65 | 1009.1 |
| 20260506001401 | 72 | 66 | 2.0 | 4.0 | 0.00 | 0.00 | 0.00 | 64 | 1009.1 |
| 20260506001201 | 72 | 94 | 1.0 | 4.0 | 0.00 | 0.00 | 0.00 | 63 | 1009.1 |
| 20260506001102 | 72 | 92 | 1.0 | 4.0 | 0.00 | 0.00 | 0.00 | 63 | 1009.1 |
| 20260506001004 | 72 | 87 | 1.0 | 4.0 | 0.00 | 0.00 | 0.00 | 63 | 1009.1 |
| 20260506000901 | 72 | 98 | 2.0 | 4.0 | 0.00 | 0.00 | 0.00 | 63 | 1009.0 |
| 20260506000759 | 72 | 81 | 3.0 | 4.0 | 0.00 | 0.00 | 0.00 | 63 | 1009.0 |
| 20260506000503 | 72 | 75 | 2.0 | 4.0 | 0.00 | 0.00 | 0.00 | 63 | 1009.0 |
| 20260506000401 | 72 | 63 | 2.0 | 4.0 | 0.00 | 0.00 | 0.00 | 63 | 1009.0 |
| 20260506000302 | 72 | 61 | 3.0 | 4.0 | 0.00 | 0.00 | 0.00 | 63 | 1009.0 |
| 20260506000201 | 72 | 70 | 3.0 | 4.0 | 0.00 | 0.00 | 0.00 | 63 | 1009.0 |
| 20260506000008 | 72 | 59 | 3.0 | 4.0 | 0.00 | 0.00 | 0.00 | 63 | 1009.0 |
| 20260505235901 | 72 | 78 | 3.0 | 4.0 | 0.00 | 0.00 | 0.00 | 63 | 1009.0 |
| 20260505235801 | 72 | 80 | 1.0 | 4.0 | 0.00 | 0.00 | 0.00 | 63 | 1009.0 |
| 20260505235701 | 72 | 64 | 1.0 | 4.0 | 0.00 | 0.00 | 0.00 | 63 | 1009.0 |
| 20260505235601 | 72 | 102 | 1.0 | 4.0 | 0.00 | 0.00 | 0.00 | 63 | 1009.0 |
| 20260505235503 | 72 | 96 | 1.0 | 4.0 | 0.00 | 0.00 | 0.00 | 63 | 1009.0 |
| 20260505235403 | 72 | 105 | 1.0 | 4.0 | 0.00 | 0.00 | 0.00 | 63 | 1009.0 |
| 20260505235301 | 72 | 93 | 1.0 | 4.0 | 0.00 | 0.00 | 0.00 | 63 | 1009.0 |
| 20260505235100 | 72 | 69 | 1.0 | 4.0 | 0.00 | 0.00 | 0.00 | 63 | 1009.0 |
| 20260505235007 | 72 | 70 | 1.0 | 4.0 | 0.00 | 0.00 | 0.00 | 62 | 1009.0 |
| 20260505234901 | 72 | 103 | 1.0 | 4.0 | 0.00 | 0.00 | 0.00 | 63 | 1009.0 |
| 20260505234802 | 72 | 74 | 1.0 | 4.0 | 0.00 | 0.00 | 0.00 | 62 | 1009.0 |
| 20260505234702 | 72 | 113 | 1.0 | 4.0 | 0.00 | 0.00 | 0.00 | 62 | 1009.0 |
| 20260505234601 | 72 | 71 | 1.0 | 4.0 | 0.00 | 0.00 | 0.00 | 62 | 1009.0 |
| 20260505234505 | 72 | 78 | 2.0 | 4.0 | 0.00 | 0.00 | 0.00 | 62 | 1009.0 |
| 20260505234401 | 72 | 60 | 1.0 | 4.0 | 0.00 | 0.00 | 0.00 | 62 | 1009.0 |
| 20260505234301 | 72 | 83 | 1.0 | 3.0 | 0.00 | 0.00 | 0.00 | 62 | 1008.9 |
| 20260505234202 | 72 | 101 | 1.0 | 3.0 | 0.00 | 0.00 | 0.00 | 62 | 1008.9 |
| 20260505234102 | 73 | 103 | 2.0 | 3.0 | 0.00 | 0.00 | 0.00 | 62 | 1009.0 |
| 20260505234004 | 73 | 76 | 1.0 | 3.0 | 0.00 | 0.00 | 0.00 | 62 | 1008.9 |
| 20260505233807 | 73 | 82 | 1.0 | 2.0 | 0.00 | 0.00 | 0.00 | 62 | 1009.0 |
| 20260505233701 | 73 | 90 | 1.0 | 2.0 | 0.00 | 0.00 | 0.00 | 62 | 1009.0 |
| 20260505233601 | 73 | 101 | 0.0 | 2.0 | 0.00 | 0.00 | 0.00 | 62 | 1009.0 |
| 20260505233503 | 73 | 81 | 0.0 | 1.0 | 0.00 | 0.00 | 0.00 | 62 | 1008.9 |
| 20260505233301 | 73 | 74 | 0.0 | 1.0 | 0.00 | 0.00 | 0.00 | 62 | 1008.9 |
| 20260505233201 | 73 | 90 | 0.0 | 1.0 | 0.00 | 0.00 | 0.00 | 62 | 1008.9 |
| 20260505233101 | 73 | 84 | 0.0 | 1.0 | 0.00 | 0.00 | 0.00 | 62 | 1009.0 |
| 20260505233003 | 73 | 95 | 0.0 | 1.0 | 0.00 | 0.00 | 0.00 | 62 | 1008.9 |
| 20260505232801 | 73 | 94 | 0.0 | 1.0 | 0.00 | 0.00 | 0.00 | 62 | 1008.9 |
| 20260505232701 | 73 | 60 | 0.0 | 3.0 | 0.00 | 0.00 | 0.00 | 62 | 1009.0 |
| 20260505232600 | 73 | 98 | 0.0 | 3.0 | 0.00 | 0.00 | 0.00 | 62 | 1009.0 |
| 20260505232505 | 73 | 83 | 0.0 | 3.0 | 0.00 | 0.00 | 0.00 | 62 | 1009.0 |
| 20260505232304 | 73 | 101 | 0.0 | 3.0 | 0.00 | 0.00 | 0.00 | 62 | 1008.9 |
| 20260505232005 | 73 | 101 | 1.0 | 3.0 | 0.00 | 0.00 | 0.00 | 62 | 1008.9 |
| 20260505231902 | 73 | 111 | 2.0 | 3.0 | 0.00 | 0.00 | 0.00 | 62 | 1008.9 |
| 20260505231801 | 73 | 138 | 1.0 | 3.0 | 0.00 | 0.00 | 0.00 | 62 | 1008.9 |
| 20260505231701 | 73 | 103 | 1.0 | 3.0 | 0.00 | 0.00 | 0.00 | 62 | 1008.8 |
| 20260505231603 | 73 | 110 | 0.0 | 3.0 | 0.00 | 0.00 | 0.00 | 62 | 1008.8 |
| 20260505231401 | 73 | 111 | 1.0 | 4.0 | 0.00 | 0.00 | 0.00 | 63 | 1008.9 |
| 20260505231301 | 73 | 117 | 1.0 | 4.0 | 0.00 | 0.00 | 0.00 | 63 | 1008.8 |